Latitude: N 50° 09' 49" Longitude: W 05° 11' 53" Elevation: 168m ASL

There are 24 visitors online

Adverts

<- Previous Day | Today | Next Day ->

All Data for 09 November 2018

Time
A - D
Temp
A - D
Dew Point
A - D
Humidity
A - D
Pressure
A - D
Wind
A - D
Wind Dir Gust
A - D
Rain Rate
A - D
Rain Total
00:00 10.6 10.5 99 1004.9 8.3 SE 10.7 0.8 0.0
00:01 10.6 10.5 99 1004.9 8.3 SE 10.7 0.8 0.0
00:02 10.6 10.5 99 1005.0 8.3 SE 10.7 0.8 0.0
00:03 10.6 10.5 99 1004.9 8.3 SE 10.7 0.8 0.0
00:04 10.6 10.5 99 1004.9 8.3 SE 10.7 0.0 0.0
00:05 10.6 10.5 99 1005.1 8.3 SE 10.7 0.0 0.0
00:06 10.6 10.5 99 1005.0 9.2 SSE 10.7 0.0 0.1
00:07 10.5 10.4 99 1005.0 13.6 SE 13.6 0.8 0.1
00:08 10.5 10.4 99 1004.9 10.7 SSE 13.6 0.8 0.1
00:09 10.5 10.4 99 1004.9 12.1 S 13.6 0.8 0.1
00:10 10.5 10.4 99 1004.9 10.7 E 13.6 0.8 0.1
00:11 10.5 10.4 99 1004.8 7.6 SE 13.6 0.8 0.1
00:12 10.5 10.4 99 1004.8 9.2 SE 13.6 0.0 0.1
00:13 10.5 10.4 99 1004.7 9.8 SE 13.6 0.0 0.1
00:14 10.5 10.4 99 1004.8 5.4 SE 13.6 0.0 0.1
00:15 10.5 10.4 99 1004.8 5.4 S 13.6 0.0 0.1
00:16 10.5 10.4 99 1004.8 6.9 SE 13.6 0.0 0.1
00:17 10.5 10.4 99 1004.7 8.3 SE 13.6 0.0 0.1
00:18 10.5 10.4 99 1004.7 5.4 S 12.1 0.0 0.1
00:19 10.5 10.4 99 1004.8 9.8 E 12.1 0.0 0.1
00:20 10.5 10.4 99 1004.7 6.9 SE 9.8 0.0 0.1
00:21 10.5 10.4 99 1004.8 6.0 SE 9.8 0.0 0.1
00:22 10.5 10.4 99 1004.8 7.6 SE 9.8 0.8 0.1
00:23 10.4 10.3 99 1004.7 6.9 SE 9.8 0.8 0.1
00:25 10.4 10.3 99 1004.7 9.8 SE 9.8 0.8 0.1
00:26 10.4 10.3 99 1004.7 7.6 S 9.8 0.8 0.1
00:27 10.5 10.4 99 1004.7 6.9 SE 9.8 0.0 0.1
00:29 10.4 10.3 99 1004.7 8.3 S 9.8 0.0 0.1
00:30 10.5 10.4 99 1004.7 8.3 SE 9.8 0.0 0.1
00:31 10.5 10.4 99 1004.8 5.4 S 9.8 0.0 0.1
00:33 10.5 10.4 99 1004.7 6.0 SE 9.8 0.0 0.1
00:34 10.5 10.4 99 1004.6 8.3 SE 9.8 0.0 0.1
00:35 10.5 10.4 99 1004.8 7.6 E 9.8 0.0 0.1
00:36 10.5 10.4 99 1004.7 7.6 SE 8.3 0.0 0.1
00:37 10.5 10.4 99 1004.6 6.0 SSE 8.3 0.0 0.1
00:38 10.5 10.4 99 1004.7 9.8 SE 9.8 0.0 0.1
00:39 10.5 10.4 99 1004.8 6.9 SE 9.8 0.0 0.1
00:40 10.5 10.4 99 1004.7 9.8 SE 9.8 0.0 0.1
00:41 10.5 10.4 99 1004.7 9.8 SE 9.8 0.0 0.1
00:42 10.5 10.4 99 1004.7 6.9 SE 9.8 0.0 0.1
00:43 10.5 10.4 99 1004.7 7.6 SE 9.8 0.0 0.1
00:44 10.5 10.4 99 1004.7 7.6 SE 9.8 0.0 0.1
00:45 10.5 10.4 99 1004.6 7.6 SE 9.8 0.0 0.1
00:46 10.5 10.4 99 1004.7 9.2 SE 9.8 0.0 0.1
00:47 10.5 10.4 99 1004.7 6.9 SE 9.8 0.0 0.1
00:48 10.5 10.4 99 1004.7 6.9 SE 9.8 0.0 0.1
00:49 10.5 10.4 99 1004.7 9.2 S 9.8 0.0 0.1
00:50 10.5 10.4 99 1004.6 9.8 S 9.8 0.0 0.1
00:51 10.5 10.4 99 1004.5 6.0 SE 9.8 0.0 0.1
00:52 10.6 10.5 99 1004.8 9.2 E 9.8 0.0 0.1
00:53 10.6 10.5 99 1004.7 6.0 N 9.8 0.0 0.1
00:54 10.6 10.5 99 1004.6 8.3 E 9.8 0.0 0.1
00:55 10.6 10.5 99 1004.7 5.4 S 10.7 0.0 0.1
00:56 10.6 10.5 99 1004.6 8.3 SE 10.7 0.0 0.1
00:57 10.6 10.5 99 1004.8 8.3 S 10.7 0.0 0.1
00:58 10.6 10.5 99 1004.6 7.6 E 10.7 0.0 0.1
00:59 10.6 10.5 99 1004.6 9.2 SE 10.7 0.0 0.1
01:00 10.6 10.5 99 1004.6 9.2 SE 10.7 0.0 0.1
01:01 10.6 10.5 99 1004.6 9.2 SE 10.7 0.0 0.1
01:02 10.6 10.5 99 1004.5 6.9 S 10.7 0.0 0.1
01:03 10.6 10.5 99 1004.7 9.8 SE 10.7 0.0 0.1
01:04 10.6 10.5 99 1004.7 6.9 SE 10.7 0.0 0.1
01:05 10.6 10.5 99 1004.6 7.6 S 10.7 0.0 0.1
01:06 10.6 10.5 99 1004.6 7.6 SE 10.7 0.0 0.1
01:07 10.6 10.5 99 1004.6 9.2 S 10.7 0.0 0.1
01:08 10.6 10.5 99 1004.8 6.9 SE 10.7 0.0 0.1
01:09 10.6 10.5 99 1004.6 10.7 SE 10.7 0.0 0.1
01:10 10.6 10.5 99 1004.6 7.6 SE 10.7 0.0 0.1
01:11 10.6 10.5 99 1004.7 9.2 SE 10.7 0.0 0.1
01:12 10.6 10.5 99 1004.7 9.2 SE 10.7 0.0 0.1
01:13 10.6 10.5 99 1004.7 10.7 SE 10.7 0.0 0.1
01:14 10.7 10.6 99 1004.7 9.2 SE 10.7 0.0 0.1
01:15 10.7 10.6 99 1004.7 9.8 SE 10.7 0.0 0.1
01:16 10.7 10.6 99 1004.7 9.8 SE 10.7 0.0 0.1
01:17 10.7 10.6 99 1004.7 12.1 SE 12.1 0.8 0.2
01:18 10.7 10.6 99 1004.6 9.8 S 12.1 0.8 0.2
01:19 10.7 10.6 99 1004.6 6.9 S 12.1 0.8 0.2
01:20 10.7 10.6 99 1004.5 6.9 SE 12.1 0.8 0.2
01:21 10.7 10.6 99 1004.5 6.0 SE 12.1 0.8 0.2
01:22 10.7 10.6 99 1004.5 6.9 S 12.1 0.0 0.2
01:23 10.7 10.6 99 1004.6 9.2 SE 12.1 0.0 0.2
01:24 10.7 10.6 99 1004.5 6.9 S 12.1 0.0 0.2
01:25 10.7 10.6 99 1004.6 6.9 SE 12.1 0.0 0.2
01:26 10.7 10.6 99 1004.6 6.0 SE 12.1 0.0 0.2
01:27 10.7 10.6 99 1004.6 6.9 SE 9.8 0.0 0.2
01:28 10.6 10.5 99 1004.4 4.5 S 9.2 0.0 0.2
01:29 10.6 10.5 99 1004.6 5.4 SE 9.2 0.0 0.2
01:30 10.6 10.5 99 1004.5 5.4 E 9.2 0.0 0.2
01:31 10.6 10.5 99 1004.4 6.9 SE 9.2 0.0 0.2
01:32 10.6 10.5 99 1004.5 7.6 SE 9.2 0.0 0.2
01:33 10.6 10.5 99 1004.4 6.9 S 9.2 0.0 0.2
01:34 10.6 10.5 99 1004.4 8.3 SE 8.3 0.0 0.2
01:35 10.6 10.5 99 1004.5 8.3 SE 8.3 0.0 0.2
01:36 10.6 10.5 99 1004.5 6.9 SE 8.3 0.0 0.2
01:37 10.6 10.5 99 1004.5 7.6 S 8.3 0.0 0.2
01:38 10.6 10.5 99 1004.4 5.4 SE 8.3 0.0 0.2
01:39 10.6 10.5 99 1004.5 3.8 E 8.3 0.0 0.2
01:40 10.6 10.5 99 1004.4 6.0 SE 8.3 0.0 0.2
01:41 10.7 10.6 99 1004.4 6.9 SE 8.3 0.0 0.2
01:42 10.7 10.6 99 1004.5 5.4 E 8.3 0.0 0.2
01:43 10.7 10.6 99 1004.4 4.5 SE 8.3 0.0 0.2
01:44 10.7 10.6 99 1004.4 3.8 N 8.3 0.0 0.2
01:45 10.7 10.6 99 1004.2 4.5 N 8.3 0.0 0.2
01:46 10.7 10.6 99 1004.3 5.4 S 7.6 0.0 0.2
01:47 10.7 10.6 99 1004.4 3.8 SE 6.9 0.0 0.2
01:48 10.7 10.6 99 1004.3 7.6 S 7.6 0.0 0.3
01:49 10.7 10.6 99 1004.4 3.8 W 7.6 0.8 0.3
01:50 10.7 10.6 99 1004.3 3.8 ENE 7.6 0.8 0.3
01:51 10.7 10.6 99 1004.3 3.8 ENE 7.6 0.8 0.3
01:52 10.7 10.6 99 1004.3 6.0 SE 7.6 0.8 0.3
01:53 10.7 10.6 99 1004.3 5.4 E 7.6 0.8 0.3
01:54 10.7 10.6 99 1004.4 6.0 SE 7.6 0.0 0.3
01:55 10.7 10.6 99 1004.4 7.6 SE 7.6 0.0 0.3
01:56 10.7 10.6 99 1004.3 6.9 S 7.6 0.0 0.3
01:57 10.7 10.6 99 1004.3 9.2 SE 9.2 0.0 0.3
01:58 10.7 10.6 99 1004.3 13.0 SE 13.0 0.0 0.3
01:59 10.7 10.6 99 1004.3 9.8 SE 13.0 0.0 0.3
02:00 10.7 10.6 99 1004.4 9.8 SE 13.0 0.0 0.3
02:01 10.7 10.6 99 1004.3 9.8 SE 13.0 0.0 0.3
02:02 10.7 10.6 99 1004.1 9.8 SE 13.0 0.0 0.3
02:03 10.7 10.6 99 1004.2 9.8 SE 13.0 0.0 0.3
02:04 10.7 10.6 99 1004.2 9.8 SE 13.0 0.0 0.3
02:05 10.7 10.6 99 1004.1 9.8 SE 13.0 0.0 0.3
02:06 10.8 10.7 99 1004.1 9.2 SE 13.0 0.0 0.3
02:07 10.8 10.7 99 1004.0 7.6 SE 13.0 0.0 0.3
02:09 10.8 10.7 99 1004.0 8.3 E 9.8 0.0 0.3
02:10 10.8 10.7 99 1004.1 6.9 E 9.8 0.0 0.3
02:11 10.8 10.7 99 1004.0 12.1 SE 12.1 0.0 0.3
02:12 10.8 10.7 99 1004.0 11.4 N 12.1 0.0 0.3
02:13 10.8 10.7 99 1004.0 9.2 S 12.1 0.0 0.3
02:14 10.9 10.8 99 1003.9 7.6 SE 12.1 0.0 0.3
02:15 10.9 10.8 99 1004.0 6.9 SE 12.1 0.0 0.3
02:16 10.9 10.8 99 1003.9 9.8 SE 12.1 0.0 0.3
02:17 10.9 10.8 99 1004.0 9.8 SE 12.1 0.0 0.3
02:18 10.9 10.8 99 1004.0 8.3 SE 12.1 0.0 0.3
02:19 10.9 10.8 99 1003.9 6.9 S 12.1 0.0 0.3
02:20 10.9 10.8 99 1003.7 8.3 SE 12.1 0.0 0.3
02:21 10.9 10.8 99 1003.7 9.2 SE 12.1 0.0 0.3
02:22 10.9 10.8 99 1003.7 10.7 S 11.4 0.0 0.3
02:23 11.0 10.9 99 1003.8 9.2 S 10.7 0.0 0.3
02:24 11.0 10.9 99 1003.9 13.6 SE 13.6 0.0 0.3
02:25 11.0 10.9 99 1003.8 7.6 S 13.6 0.0 0.3
02:26 11.0 10.9 99 1003.8 9.8 E 13.6 0.0 0.3
02:27 11.0 10.9 99 1003.8 10.7 SE 13.6 0.0 0.3
02:28 11.0 10.9 99 1003.8 8.3 SE 13.6 0.0 0.3
02:29 11.0 10.9 99 1004.0 13.0 E 13.6 0.0 0.3
02:31 11.0 10.9 99 1003.9 10.7 SE 13.6 0.0 0.3
02:32 11.0 10.9 99 1004.0 8.3 SE 13.6 0.0 0.3
02:33 11.0 10.9 99 1003.9 13.0 SE 13.6 0.0 0.3
02:34 11.0 10.9 99 1003.9 12.1 SE 15.2 0.0 0.3
02:35 11.1 11.0 99 1003.9 14.5 SE 15.2 0.0 0.3
02:36 11.0 10.9 99 1003.9 13.0 SE 15.2 0.0 0.3
02:37 11.1 11.0 99 1003.8 11.4 SE 15.2 0.0 0.3
02:38 11.1 11.0 99 1003.8 12.1 E 15.2 0.0 0.3
02:39 11.1 11.0 99 1003.8 13.0 SE 15.2 0.0 0.3
02:40 11.1 11.0 99 1003.7 11.4 SE 15.2 0.0 0.3
02:41 11.1 11.0 99 1003.9 13.6 SE 15.2 0.0 0.3
02:42 11.1 11.0 99 1003.9 13.6 SSE 15.2 0.0 0.3
02:43 11.1 11.0 99 1003.8 13.0 S 15.2 0.0 0.3
02:44 11.1 11.0 99 1003.8 12.1 SE 15.2 0.0 0.3
02:45 11.1 11.0 99 1003.8 13.0 SE 14.5 0.0 0.3
02:46 11.1 11.0 99 1003.8 9.8 SE 13.6 0.0 0.3
02:47 11.1 11.0 99 1003.9 10.7 SE 13.6 0.0 0.3
02:48 11.1 11.0 99 1003.8 11.4 ESE 13.6 0.0 0.3
02:50 11.1 11.0 99 1003.8 10.7 SE 13.6 0.0 0.3
02:52 11.1 11.0 99 1003.8 11.4 S 13.6 0.0 0.3
02:53 11.1 11.0 99 1003.9 9.8 SE 13.0 0.0 0.3
02:54 11.1 11.0 99 1003.8 12.1 S 13.0 0.0 0.3
02:55 11.1 11.0 99 1003.8 12.1 S 13.0 0.0 0.3
02:56 11.1 11.0 99 1003.8 8.3 SE 12.1 0.0 0.3
02:57 11.1 11.0 99 1003.7 11.4 SE 12.1 0.0 0.3
02:58 11.1 11.0 99 1003.8 9.8 SE 12.1 0.0 0.3
02:59 11.1 11.0 99 1003.8 9.2 SW 12.1 0.0 0.3
03:00 11.1 11.0 99 1003.9 11.4 SE 12.1 0.0 0.3
03:01 11.1 11.0 99 1003.8 11.4 SE 12.1 0.0 0.3
03:02 11.1 11.0 99 1003.8 9.8 S 12.1 0.0 0.3
03:03 11.1 11.0 99 1003.8 8.3 SE 12.1 0.0 0.3
03:04 11.1 11.0 99 1003.8 8.3 SE 12.1 0.0 0.3
03:05 11.1 11.0 99 1003.9 10.7 SE 12.1 0.0 0.3
03:06 11.1 11.0 99 1003.8 11.4 S 11.4 0.0 0.3
03:07 11.1 11.0 99 1003.6 11.4 S 11.4 0.0 0.3
03:08 11.1 11.0 99 1003.8 12.1 SE 12.1 0.0 0.3
03:09 11.1 11.0 99 1003.8 10.7 E 12.1 0.0 0.3
03:10 11.1 11.0 99 1003.6 13.0 SE 13.0 0.0 0.3
03:12 11.1 11.0 99 1003.7 9.8 SE 13.0 0.0 0.3
03:13 11.1 11.0 99 1003.7 9.2 S 13.0 0.0 0.3
03:14 11.1 11.0 99 1003.7 8.3 SE 13.0 0.0 0.3
03:15 11.1 11.0 99 1003.6 9.2 SE 13.0 0.0 0.3
03:16 11.1 11.0 99 1003.6 10.7 SSW 13.0 0.0 0.3
03:17 11.1 11.0 99 1003.6 9.8 E 13.0 0.0 0.3
03:18 11.1 11.0 99 1003.6 10.7 SE 13.0 0.0 0.3
03:19 11.1 11.0 99 1003.5 8.3 SE 13.0 0.0 0.3
03:20 11.1 11.0 99 1003.5 12.1 SSE 12.1 0.0 0.3
03:21 11.1 11.0 99 1003.6 9.2 S 12.1 0.0 0.3
03:22 11.1 11.0 99 1003.6 9.8 S 12.1 0.0 0.3
03:23 11.1 11.0 99 1003.5 9.2 SE 12.1 0.0 0.3
03:24 11.1 11.0 99 1003.6 8.3 SE 12.1 0.0 0.3
03:25 11.1 11.0 99 1003.6 9.8 SE 12.1 0.0 0.3
03:26 11.1 11.0 99 1003.4 14.5 SE 14.5 0.0 0.3
03:27 11.1 11.0 99 1003.6 9.8 SE 14.5 0.0 0.3
03:28 11.1 11.0 99 1003.6 9.8 SE 14.5 0.0 0.3
03:29 11.1 11.0 99 1003.5 11.4 SE 14.5 0.0 0.3
03:30 11.1 11.0 99 1003.7 9.2 SW 14.5 0.0 0.3
03:32 11.2 11.1 99 1003.4 13.0 SE 14.5 0.0 0.3
03:33 11.2 11.1 99 1003.5 15.2 SE 15.2 0.0 0.3
03:34 11.2 11.1 99 1003.5 15.2 S 15.2 0.0 0.3
03:35 11.1 11.0 99 1003.5 15.2 S 15.2 0.0 0.3
03:36 11.1 11.0 99 1003.6 12.1 SE 15.2 0.0 0.3
03:37 11.1 11.0 99 1003.5 13.6 SE 15.2 0.0 0.3
03:38 11.2 11.1 99 1003.4 7.6 SE 15.2 0.0 0.3
03:39 11.2 11.1 99 1003.6 11.4 S 15.2 0.0 0.3
03:40 11.1 11.0 99 1003.6 9.8 SE 15.2 0.0 0.3
03:41 11.1 11.0 99 1003.4 9.2 S 15.2 0.0 0.3
03:42 11.2 11.1 99 1003.4 10.7 S 15.2 0.0 0.3
03:43 11.1 11.0 99 1003.4 9.2 E 15.2 0.0 0.3
03:44 11.2 11.1 99 1003.4 10.7 SE 15.2 0.0 0.3
03:45 11.2 11.1 99 1003.4 9.2 SW 13.6 0.0 0.3
03:46 11.2 11.1 99 1003.5 7.6 SE 13.6 0.0 0.3
03:47 11.2 11.1 99 1003.4 7.6 SE 13.0 0.0 0.3
03:48 11.1 11.0 99 1003.4 10.7 SE 13.0 0.0 0.3
03:49 11.2 11.1 99 1003.4 8.3 SE 13.0 0.0 0.3
03:51 11.1 11.0 99 1003.4 9.2 SSE 13.0 0.0 0.3
03:52 11.2 11.1 99 1003.6 10.7 S 13.0 0.0 0.3
03:53 11.2 11.1 99 1003.5 11.4 SW 11.4 0.0 0.3
03:54 11.1 11.0 99 1003.4 10.7 SSW 11.4 0.0 0.3
03:55 11.2 11.1 99 1003.5 9.2 S 11.4 0.0 0.3
03:56 11.1 11.0 99 1003.5 8.3 SW 11.4 0.0 0.3
03:57 11.1 11.0 99 1003.5 4.5 SW 11.4 0.0 0.3
03:58 11.0 10.9 99 1003.5 8.3 S 11.4 0.0 0.3
03:59 11.0 10.9 99 1003.5 4.5 SW 11.4 0.0 0.3
04:00 11.0 10.9 99 1003.6 5.4 S 11.4 0.0 0.3
04:01 11.0 10.9 99 1003.5 5.4 S 11.4 0.0 0.3
04:02 10.9 10.8 99 1003.5 7.6 S 11.4 0.0 0.3
04:03 10.9 10.8 99 1003.6 6.9 SW 10.7 0.0 0.3
04:04 10.8 10.7 99 1003.6 6.0 S 9.2 0.0 0.3
04:05 10.8 10.7 99 1003.5 6.0 S 9.2 0.0 0.3
04:06 10.8 10.7 99 1003.5 6.9 S 9.2 0.0 0.3
04:07 10.8 10.7 99 1003.5 6.9 S 9.2 0.0 0.3
04:08 10.7 10.6 99 1003.5 4.5 S 9.2 0.8 0.3
04:09 10.7 10.6 99 1003.6 7.6 SW 7.6 0.8 0.3
04:11 10.7 10.6 99 1003.5 9.8 SW 9.8 0.8 0.3
04:12 10.6 10.5 99 1003.6 5.4 SW 9.8 0.8 0.3
04:13 10.6 10.5 99 1003.7 6.9 SW 9.8 0.8 0.4
04:14 10.6 10.5 99 1003.7 7.6 SW 9.8 0.8 0.4
04:15 10.6 10.5 99 1003.5 5.4 NW 9.8 0.8 0.4
04:16 10.5 10.4 99 1003.7 6.9 SW 9.8 0.8 0.4
04:17 10.5 10.4 99 1003.7 5.4 SW 9.8 0.8 0.4
04:18 10.5 10.4 99 1003.7 6.0 SW 9.8 0.0 0.4
04:19 10.4 10.3 99 1003.7 9.2 SE 9.8 0.0 0.4
04:20 10.4 10.3 99 1003.7 8.3 S 9.8 1.5 0.5
04:21 10.4 10.3 99 1003.7 5.4 S 9.2 2.3 0.6
04:22 10.3 10.2 99 1003.7 8.3 S 9.2 3.0 0.6
04:23 10.3 10.2 99 1003.5 7.6 SW 9.2 3.0 0.6
04:24 10.3 10.2 99 1003.6 5.4 SE 9.2 3.8 0.7
04:25 10.3 10.2 99 1003.7 7.6 SW 9.2 2.3 0.7
04:26 10.2 10.1 99 1003.6 6.9 SW 9.2 1.5 0.7
04:27 10.2 10.1 99 1003.6 7.6 SW 9.2 0.8 0.7
04:28 10.1 10.0 99 1003.5 4.5 SW 9.2 1.5 0.8
04:30 10.0 9.9 99 1003.7 4.5 SW 8.3 0.8 0.8
04:31 10.0 9.9 99 1003.5 3.8 SW 8.3 0.8 0.8
04:32 10.0 9.9 99 1003.6 5.4 SW 8.3 0.8 0.8
04:33 9.9 9.8 99 1003.7 5.4 SW 7.6 0.0 0.8
04:34 9.9 9.8 99 1003.7 4.5 SW 7.6 0.0 0.8
04:35 9.9 9.8 99 1003.5 5.4 SW 7.6 0.8 0.8
04:36 9.9 9.8 99 1003.4 3.8 SW 7.6 0.8 0.8
04:37 9.8 9.7 99 1003.6 3.8 SW 6.0 0.8 0.8
04:38 9.8 9.7 99 1003.6 4.5 SW 5.4 1.5 0.9
04:39 9.8 9.7 99 1003.6 5.4 SW 5.4 1.5 0.9
04:40 9.7 9.6 99 1003.6 3.8 SW 5.4 1.5 0.9
04:41 9.7 9.6 99 1003.6 5.4 S 5.4 2.3 1.0
04:42 9.7 9.6 99 1003.8 6.9 S 7.6 2.3 1.0
04:43 9.7 9.6 99 1003.7 5.4 S 7.6 1.5 1.1
04:44 9.7 9.6 99 1003.7 4.5 S 7.6 2.3 1.1
04:45 9.6 9.5 99 1003.7 5.4 SW 7.6 1.5 1.1
04:46 9.6 9.5 99 1003.8 3.8 SW 7.6 0.8 1.1
04:47 9.6 9.5 99 1003.7 5.4 S 7.6 0.8 1.1
04:49 9.6 9.5 99 1003.6 5.4 SW 7.6 0.8 1.1
04:50 9.6 9.5 99 1003.5 4.5 WSW 7.6 0.8 1.1
04:51 9.5 9.4 99 1003.6 3.8 S 7.6 0.8 1.1
04:52 9.5 9.4 99 1003.5 4.5 S 6.9 0.8 1.1
04:53 9.5 9.4 99 1003.6 4.5 SW 6.0 0.0 1.1
04:54 9.5 9.4 99 1003.5 5.4 SE 6.0 0.0 1.1
04:55 9.5 9.4 99 1003.7 5.4 S 6.0 0.0 1.1
04:56 9.5 9.4 99 1003.6 5.4 S 6.0 0.0 1.1
04:57 9.5 9.4 99 1003.7 5.4 S 6.0 0.0 1.1
04:58 9.4 9.3 99 1003.7 4.5 SW 5.4 0.0 1.1
04:59 9.4 9.3 99 1003.8 5.4 SW 5.4 0.0 1.1
05:00 9.4 9.3 99 1003.6 6.0 SSW 6.0 0.0 1.1
05:01 9.4 9.3 99 1003.7 6.0 SSW 6.0 0.0 1.1
05:02 9.4 9.3 99 1003.6 6.0 SSW 6.0 0.0 1.1
05:03 9.4 9.3 99 1003.7 6.0 SSW 6.0 0.0 1.1
05:04 9.4 9.3 99 1003.7 6.0 SSW 6.0 0.0 1.1
05:05 9.4 9.3 99 1003.5 6.0 SSW 6.0 0.0 1.1
05:06 9.4 9.3 99 1003.6 6.0 SSW 6.0 0.0 1.1
05:07 9.3 9.2 99 1003.6 4.5 SW 6.0 0.0 1.1
05:08 9.3 9.2 99 1003.7 3.8 S 6.0 0.0 1.1
05:10 9.3 9.2 99 1003.7 5.4 S 6.0 0.0 1.1
05:11 9.3 9.2 99 1003.6 4.5 SE 6.0 0.0 1.1
05:12 9.3 9.2 99 1003.6 5.4 SW 6.0 0.0 1.1
05:13 9.2 9.1 99 1003.5 4.5 SW 6.0 0.0 1.1
05:14 9.2 9.1 99 1003.4 5.4 S 6.0 0.0 1.1
05:15 9.2 9.1 99 1003.5 5.4 SW 6.0 0.0 1.1
05:16 9.2 9.1 99 1003.7 5.4 S 6.9 0.0 1.1
05:17 9.3 9.2 99 1003.6 5.4 SW 6.9 0.0 1.1
05:18 9.2 9.1 99 1003.6 4.5 S 6.9 0.0 1.1
05:19 9.2 9.1 99 1003.6 6.0 S 6.9 0.0 1.1
05:20 9.2 9.1 99 1003.6 4.5 SW 6.9 0.0 1.1
05:21 9.1 9.0 99 1003.6 6.0 SW 6.9 0.0 1.1
05:22 9.1 9.0 99 1003.8 5.4 S 6.9 0.0 1.1
05:23 9.1 9.0 99 1003.6 5.4 S 6.9 0.0 1.1
05:24 9.1 9.0 99 1003.6 5.4 SW 6.9 0.0 1.1
05:25 9.1 9.0 99 1003.6 4.5 S 6.9 0.0 1.1
05:26 9.1 9.0 99 1003.7 4.5 SW 6.0 0.0 1.1
05:27 9.1 9.0 99 1003.6 3.8 SW 6.0 0.0 1.1
05:29 9.0 8.9 99 1003.7 2.2 SE 6.0 0.0 1.1
05:30 9.0 8.9 99 1003.6 4.5 S 6.0 0.0 1.1
05:31 9.0 8.9 99 1003.6 4.5 S 6.0 0.0 1.1
05:32 8.9 8.8 99 1003.6 4.5 SE 5.4 0.0 1.1
05:33 8.9 8.8 99 1003.7 3.8 S 5.4 0.0 1.1
05:34 8.9 8.8 99 1003.6 3.1 S 5.4 0.0 1.1
05:35 8.8 8.7 99 1003.6 3.1 S 4.5 0.0 1.1
05:36 8.8 8.7 99 1003.6 4.5 S 4.5 0.0 1.1
05:37 8.8 8.7 99 1003.6 3.8 S 4.5 0.0 1.1
05:38 8.7 8.6 99 1003.7 3.8 S 4.5 0.0 1.1
05:39 8.7 8.6 99 1003.6 6.0 S 6.0 0.0 1.1
05:40 8.7 8.6 99 1003.7 6.0 S 6.0 0.0 1.1
05:41 8.7 8.6 99 1003.8 3.8 S 6.0 0.0 1.1
05:42 8.7 8.6 99 1003.8 4.5 S 6.0 0.0 1.1
05:43 8.6 8.5 99 1003.8 4.5 S 6.0 0.0 1.1
05:44 8.6 8.5 99 1003.8 3.8 S 6.0 0.0 1.1
05:45 8.6 8.5 99 1003.7 3.8 S 6.0 0.0 1.1
05:46 8.6 8.5 99 1003.8 6.0 SW 6.0 0.0 1.1
05:48 8.6 8.5 99 1003.8 6.9 S 6.9 0.0 1.1
05:49 8.6 8.5 99 1003.7 7.6 SW 7.6 0.0 1.1
05:50 8.6 8.5 99 1003.9 6.9 S 7.6 0.0 1.1
05:51 8.6 8.5 99 1003.7 5.4 SW 7.6 0.0 1.1
05:52 8.5 8.4 99 1003.9 6.0 SW 7.6 0.0 1.1
05:53 8.5 8.4 99 1003.8 5.4 S 7.6 0.0 1.1
05:54 8.5 8.4 99 1003.7 7.6 SW 7.6 0.0 1.1
05:55 8.5 8.4 99 1003.7 4.5 S 7.6 0.0 1.1
05:56 8.5 8.4 99 1003.7 4.5 S 7.6 0.0 1.1
05:57 8.5 8.4 99 1003.6 3.8 S 7.6 0.0 1.1
05:58 8.5 8.4 99 1003.6 2.2 S 7.6 0.0 1.1
05:59 8.5 8.4 99 1003.7 3.1 S 7.6 0.0 1.1
06:00 8.5 8.4 99 1003.6 5.4 S 7.6 0.0 1.1
06:01 8.5 8.4 99 1003.5 5.4 S 7.6 0.0 1.1
06:02 8.5 8.4 99 1003.6 5.4 S 7.6 0.0 1.1
06:03 8.5 8.4 99 1003.6 5.4 S 7.6 0.0 1.1
06:04 8.5 8.4 99 1003.5 5.4 S 7.6 0.0 1.1
06:05 8.5 8.4 99 1003.6 5.4 S 5.4 0.0 1.1
06:07 8.3 8.2 99 1003.4 3.8 SE 5.4 0.0 1.1
06:08 8.3 8.2 99 1003.5 3.8 S 5.4 0.0 1.1
06:09 8.3 8.2 99 1003.5 4.5 SE 5.4 0.0 1.1
06:10 8.3 8.2 99 1003.6 3.8 SE 5.4 0.0 1.1
06:11 8.2 8.1 99 1003.6 4.5 NNE 5.4 0.0 1.1
06:12 8.2 8.1 99 1003.7 3.8 S 5.4 0.0 1.1
06:13 8.1 8.0 99 1003.5 4.5 E 5.4 0.0 1.1
06:14 8.1 8.0 99 1003.7 3.8 S 5.4 0.0 1.1
06:15 8.1 8.0 99 1003.8 5.4 S 5.4 0.0 1.1
06:16 8.1 8.0 99 1003.8 4.5 S 5.4 0.0 1.1
06:17 8.1 8.0 99 1003.9 5.4 S 5.4 0.0 1.1
06:18 8.1 8.0 99 1003.7 4.5 S 5.4 0.0 1.1
06:19 8.0 7.9 99 1003.8 5.4 S 5.4 0.0 1.1
06:20 8.0 7.9 99 1003.6 5.4 S 5.4 0.0 1.1
06:21 8.0 7.9 99 1003.6 6.0 S 6.0 0.0 1.1
06:22 8.0 7.9 99 1003.8 5.4 S 6.0 0.0 1.1
06:23 8.0 7.9 99 1003.6 3.8 E 6.0 0.0 1.1
06:24 8.0 7.9 99 1003.6 4.5 S 6.0 0.0 1.1
06:26 8.0 7.9 99 1003.7 5.4 S 6.0 0.0 1.1
06:27 8.0 7.9 99 1003.7 3.8 S 6.0 0.0 1.1
06:28 8.0 7.9 99 1003.7 2.2 SW 6.0 0.0 1.1
06:29 8.0 7.9 99 1003.7 3.8 S 6.0 0.0 1.1
06:30 8.0 7.9 99 1003.6 3.8 S 6.0 0.0 1.1
06:31 8.0 7.9 99 1003.6 4.5 S 6.0 0.0 1.1
06:32 7.9 7.8 99 1003.9 4.5 S 6.0 0.0 1.1
06:33 8.0 7.9 99 1003.8 5.4 SW 5.4 0.0 1.1
06:34 8.0 7.9 99 1003.7 5.4 S 5.4 0.0 1.1
06:35 8.0 7.9 99 1003.7 5.4 S 5.4 0.0 1.1
06:36 8.0 7.9 99 1003.7 6.0 S 6.0 0.0 1.1
06:37 8.0 7.9 99 1003.7 7.6 SE 7.6 0.0 1.1
06:38 8.0 7.9 99 1003.7 5.4 S 7.6 0.0 1.1
06:39 8.0 7.9 99 1003.7 6.0 SSW 7.6 0.0 1.1
06:40 8.0 7.9 99 1003.7 6.0 SE 7.6 0.0 1.1
06:41 8.0 7.9 99 1003.5 6.0 S 7.6 0.0 1.1
06:42 8.1 8.0 99 1003.8 4.5 SE 7.6 0.0 1.1
06:43 8.1 8.0 99 1003.5 5.4 SE 7.6 0.0 1.1
06:45 8.1 8.0 99 1003.5 6.0 S 7.6 0.0 1.1
06:46 8.1 8.0 99 1003.7 4.5 SE 7.6 0.0 1.1
06:47 8.1 8.0 99 1003.5 5.4 S 8.3 0.0 1.1
06:48 8.1 8.0 99 1003.4 7.6 S 8.3 0.0 1.1
06:49 8.2 8.1 99 1003.6 6.9 S 8.3 0.0 1.1
06:50 8.2 8.1 99 1003.5 6.9 SW 8.3 0.0 1.1
06:51 8.0 7.9 99 1003.5 6.0 S 8.3 0.0 1.1
06:52 8.2 8.1 99 1003.5 6.9 NW 8.3 0.0 1.1
06:53 8.2 8.1 99 1003.6 6.9 S 8.3 0.0 1.1
06:54 8.2 8.1 99 1003.4 6.9 S 8.3 0.0 1.1
06:55 8.2 8.1 99 1003.4 6.9 S 8.3 0.0 1.1
06:56 8.2 8.1 99 1003.4 6.9 S 8.3 0.0 1.1
06:57 8.2 8.1 99 1003.5 5.4 SE 7.6 0.0 1.1
06:59 8.2 8.1 99 1003.4 4.5 S 7.6 0.0 1.1
07:00 8.2 8.1 99 1003.4 6.9 S 7.6 0.0 1.1
07:01 8.2 8.1 99 1003.3 6.9 S 7.6 0.0 1.1
07:02 8.2 8.1 99 1003.4 6.9 S 7.6 0.0 1.1
07:03 8.2 8.1 99 1003.5 7.6 S 9.2 0.0 1.1
07:04 8.2 8.1 99 1003.3 6.9 SSE 9.2 0.0 1.1
07:05 8.3 8.2 99 1003.3 9.2 S 9.2 0.0 1.1
07:06 8.3 8.2 99 1003.4 8.3 SSE 9.2 0.0 1.1
07:07 8.3 8.2 99 1003.3 9.8 S 9.8 0.0 1.1
07:08 8.3 8.2 99 1003.3 9.2 S 9.8 0.0 1.1
07:09 8.3 8.2 99 1003.3 8.3 S 9.8 0.0 1.1
07:10 8.3 8.2 99 1003.3 8.3 S 9.8 0.0 1.1
07:11 8.3 8.2 99 1003.4 6.0 SE 9.8 0.0 1.1
07:12 8.3 8.2 99 1003.3 7.6 S 9.8 0.0 1.1
07:13 8.3 8.2 99 1003.4 7.6 S 9.8 0.0 1.1
07:14 8.3 8.2 99 1003.3 8.3 S 9.8 0.0 1.1
07:15 8.3 8.2 99 1003.3 7.6 S 9.8 0.0 1.1
07:16 8.3 8.2 99 1003.3 10.7 S 10.7 0.0 1.1
07:17 8.3 8.2 99 1003.3 8.3 S 10.7 0.0 1.1
07:19 8.3 8.2 99 1003.3 7.6 SE 10.7 0.0 1.1
07:20 8.3 8.2 99 1003.3 9.2 SE 10.7 0.0 1.1
07:21 8.3 8.2 99 1003.1 9.2 S 10.7 0.0 1.1
07:22 8.3 8.2 99 1003.2 9.2 S 10.7 0.0 1.1
07:23 8.4 8.3 99 1003.2 11.4 SE 11.4 0.0 1.1
07:24 8.4 8.3 99 1003.1 9.8 SE 11.4 0.0 1.1
07:25 8.4 8.3 99 1003.1 10.7 S 11.4 0.0 1.1
07:26 8.4 8.3 99 1003.2 9.8 S 11.4 0.0 1.1
07:27 8.5 8.4 99 1003.0 6.9 S 11.4 0.0 1.1
07:28 8.5 8.4 99 1003.0 8.3 SE 11.4 0.0 1.1
07:29 8.5 8.4 99 1003.0 8.3 SE 11.4 0.0 1.1
07:30 8.5 8.4 99 1003.1 9.8 S 11.4 0.0 1.1
07:31 8.5 8.4 99 1003.2 7.6 S 11.4 0.0 1.1
07:33 8.5 8.4 99 1003.0 6.0 S 11.4 0.0 1.1
07:34 8.5 8.4 99 1003.2 8.3 SE 10.7 0.0 1.1
07:35 8.5 8.4 99 1003.2 8.3 S 10.7 0.0 1.1
07:36 8.5 8.4 99 1003.2 7.6 SE 9.8 0.0 1.1
07:37 8.5 8.4 99 1003.2 8.3 SE 9.8 0.0 1.1
07:38 8.5 8.4 99 1003.2 9.2 S 9.8 0.0 1.1
07:39 8.5 8.4 99 1003.2 8.3 S 9.8 0.0 1.1
07:40 8.5 8.4 99 1003.2 6.9 S 9.2 0.0 1.1
07:41 8.5 8.4 99 1003.1 8.3 SE 9.2 0.0 1.1
07:42 8.5 8.4 99 1003.2 9.8 SE 9.8 0.0 1.1
07:43 8.5 8.4 99 1003.3 7.6 SSE 9.8 0.0 1.1
07:44 8.5 8.4 99 1003.2 8.3 SE 9.8 0.0 1.1
07:45 8.5 8.4 99 1003.2 8.3 SE 9.8 0.0 1.1
07:46 8.5 8.4 99 1003.1 6.9 SE 9.8 0.0 1.1
07:48 8.6 8.5 99 1003.1 8.3 SE 9.8 0.0 1.1
07:49 8.6 8.5 99 1003.1 12.1 SE 12.1 0.0 1.1
07:50 8.6 8.5 99 1003.3 10.7 S 12.1 0.8 1.2
07:51 8.7 8.6 99 1003.2 10.7 SE 12.1 0.8 1.2
07:52 8.7 8.6 99 1003.2 9.2 S 12.1 0.8 1.2
07:53 8.7 8.6 99 1003.0 9.8 S 12.1 0.8 1.2
07:54 8.7 8.6 99 1003.0 9.8 S 12.1 0.8 1.2
07:55 8.7 8.6 99 1003.1 9.8 SE 12.1 0.0 1.2
07:56 8.8 8.7 99 1003.0 9.2 S 12.1 0.0 1.2
07:57 8.8 8.7 99 1003.0 10.7 S 12.1 0.0 1.2
07:58 8.8 8.7 99 1003.0 10.7 S 12.1 0.0 1.2
07:59 8.8 8.7 99 1002.9 10.7 S 12.1 0.0 1.2
08:00 8.8 8.7 99 1002.9 11.4 SE 11.4 0.0 1.2
08:02 8.8 8.7 99 1002.9 11.4 SE 11.4 0.0 1.2
08:03 8.8 8.7 99 1002.8 11.4 SE 11.4 0.0 1.2
08:04 8.8 8.7 99 1002.9 11.4 SE 11.4 0.0 1.2
08:05 9.0 8.9 99 1002.8 13.0 S 13.0 0.0 1.2
08:06 9.0 8.9 99 1002.8 12.1 SSE 13.0 0.0 1.2
08:07 9.0 8.9 99 1002.7 9.8 S 13.0 0.0 1.2
08:08 9.0 8.9 99 1002.8 6.9 SSE 13.0 0.0 1.2
08:09 9.0 8.9 99 1002.9 6.9 SE 13.0 0.0 1.2
08:10 9.0 8.9 99 1002.7 6.9 SE 13.0 0.0 1.2
08:11 9.0 8.9 99 1002.8 6.9 SE 13.0 0.0 1.2
08:12 9.1 9.0 99 1002.8 10.7 SE 13.0 0.0 1.2
08:13 9.1 9.0 99 1002.8 9.8 SE 13.0 0.0 1.2
08:14 9.1 9.0 99 1002.7 9.8 SE 13.0 0.0 1.2
08:15 9.1 9.0 99 1002.7 11.4 S 13.0 0.0 1.2
08:17 9.1 9.0 99 1002.8 13.0 S 13.0 0.0 1.2
08:18 9.1 9.0 99 1002.7 10.7 S 13.0 0.0 1.2
08:19 9.1 9.0 99 1002.7 12.1 SE 13.0 0.0 1.2
08:20 9.2 9.1 99 1002.6 13.6 SE 13.6 0.0 1.2
08:21 9.2 9.1 99 1002.7 12.1 ESE 13.6 0.0 1.2
08:22 9.2 9.1 99 1002.6 11.4 SE 13.6 0.0 1.2
08:23 9.3 9.2 99 1002.7 9.8 SSE 13.6 0.0 1.2
08:24 9.2 9.1 99 1002.5 9.8 SE 13.6 0.0 1.2
08:25 9.2 9.1 99 1002.5 9.8 SE 13.6 0.0 1.2
08:26 9.2 9.1 99 1002.5 9.8 SE 13.6 0.0 1.2
08:27 9.2 9.1 99 1002.6 10.7 ESE 13.6 0.0 1.2
08:28 9.2 9.1 99 1002.6 10.7 ESE 13.6 0.0 1.2
08:29 9.2 9.1 99 1002.4 9.2 S 13.6 0.0 1.2
08:31 9.2 9.1 99 1002.5 9.8 SE 13.6 0.0 1.2
08:32 9.2 9.1 99 1002.5 7.6 S 12.1 0.0 1.2
08:33 9.2 9.1 99 1002.5 9.8 SE 12.1 0.0 1.2
08:34 9.2 9.1 99 1002.4 9.2 SE 12.1 0.0 1.2
08:35 9.2 9.1 99 1002.4 9.2 SE 12.1 0.0 1.2
08:36 9.2 9.1 99 1002.4 9.8 SE 12.1 0.0 1.2
08:37 9.2 9.1 99 1002.7 13.6 S 13.6 0.0 1.2
08:38 9.2 9.1 99 1002.6 10.7 SE 13.6 0.0 1.2
08:39 9.3 9.2 99 1002.5 9.8 SE 13.6 0.0 1.2
08:40 9.2 9.1 99 1002.6 13.6 SSW 13.6 0.0 1.2
08:41 9.2 9.1 99 1002.6 13.6 SSW 13.6 0.0 1.2
08:42 9.2 9.1 99 1002.6 11.4 S 13.6 0.0 1.2
08:43 9.2 9.1 99 1002.4 11.4 S 13.6 0.0 1.2
08:44 9.2 9.1 99 1002.5 12.1 SE 13.6 0.0 1.2
08:46 9.2 9.1 99 1002.4 13.0 S 13.6 0.0 1.2
08:47 9.3 9.2 99 1002.4 11.4 SE 13.6 0.0 1.2
08:48 9.3 9.2 99 1002.3 11.4 SE 13.6 0.0 1.2
08:49 9.3 9.2 99 1002.3 13.0 SE 13.6 0.0 1.2
08:50 9.3 9.2 99 1002.1 13.0 SE 13.6 0.0 1.2
08:51 9.3 9.2 99 1002.3 11.4 SE 13.0 0.0 1.2
08:52 9.3 9.2 99 1002.3 11.4 S 13.0 0.0 1.2
08:53 9.4 9.3 99 1002.2 13.6 SSE 13.6 0.0 1.2
08:54 9.4 9.3 99 1002.2 10.7 S 13.6 0.0 1.2
08:55 9.4 9.3 99 1002.2 9.8 SE 13.6 0.0 1.2
08:56 9.4 9.3 99 1002.3 11.4 SE 13.6 0.0 1.2
08:57 9.4 9.3 99 1002.2 10.7 SE 13.6 0.0 1.2
08:58 9.4 9.3 99 1002.1 13.6 SE 13.6 0.0 1.2
08:59 9.5 9.4 99 1002.3 14.5 SE 15.9 0.0 1.2
09:01 9.5 9.4 99 1002.0 16.8 S 16.8 0.0 1.2
09:02 9.5 9.4 99 1002.0 16.8 S 16.8 0.0 1.2
09:03 9.5 9.4 99 1001.9 14.5 SE 16.8 0.0 1.2
09:04 9.6 9.5 99 1001.9 13.6 SE 16.8 0.0 1.2
09:06 9.6 9.3 98 1001.9 15.2 SE 16.8 0.0 1.2
09:07 9.6 9.3 98 1001.7 14.5 SE 16.8 0.0 1.2
09:08 9.7 9.4 98 1001.7 15.2 SE 16.8 0.0 1.2
09:09 9.8 9.5 98 1001.7 14.5 S 16.8 0.0 1.2
09:10 9.7 9.4 98 1001.6 15.9 SE 16.8 0.0 1.2
09:11 9.7 9.4 98 1001.6 13.0 S 16.8 0.0 1.2
09:12 9.8 9.5 98 1001.6 12.1 SE 15.9 0.0 1.2
09:13 9.8 9.5 98 1001.6 13.6 SE 15.9 0.0 1.2
09:14 9.8 9.5 98 1001.6 16.8 SE 16.8 0.0 1.2
09:15 9.8 9.5 98 1001.5 14.5 SE 16.8 0.0 1.2
09:16 9.8 9.5 98 1001.7 14.5 S 16.8 0.0 1.2
09:17 9.8 9.5 98 1001.5 11.4 SE 16.8 0.0 1.2
09:18 9.9 9.6 98 1001.6 13.0 S 16.8 0.0 1.2
09:20 9.9 9.6 98 1001.5 14.5 SE 16.8 0.0 1.2
09:21 9.9 9.6 98 1001.4 13.6 S 16.8 0.0 1.2
09:22 9.9 9.6 98 1001.3 13.0 S 16.8 0.0 1.2
09:23 10.0 9.7 98 1001.3 14.5 SE 16.8 0.0 1.2
09:24 10.0 9.7 98 1001.3 13.6 SE 16.8 0.0 1.2
09:25 10.0 9.7 98 1001.1 13.0 SE 15.9 0.0 1.2
09:26 10.0 9.7 98 1001.2 16.8 SE 16.8 0.0 1.2
09:27 10.0 9.7 98 1001.2 15.9 S 16.8 0.0 1.2
09:28 10.1 9.8 98 1001.2 18.3 SSE 18.3 0.0 1.2
09:29 10.1 9.6 97 1001.2 13.0 E 18.3 0.0 1.2
09:30 10.1 9.6 97 1001.2 13.0 E 18.3 0.0 1.2
09:31 10.1 9.6 97 1001.0 14.5 S 18.3 0.0 1.2
09:32 10.1 9.6 97 1001.0 13.0 S 18.3 0.0 1.2
09:33 10.1 9.6 97 1001.0 18.3 SE 18.3 0.0 1.2
09:35 10.2 9.7 97 1000.9 11.4 E 18.3 0.0 1.2
09:36 10.2 9.7 97 1001.0 22.1 S 22.1 0.0 1.2
09:37 10.2 9.7 97 1000.8 15.2 SE 22.1 0.0 1.2
09:38 10.2 9.7 97 1001.0 14.5 S 22.1 0.0 1.2
09:39 10.3 9.8 97 1000.9 15.2 S 22.1 0.0 1.2
09:40 10.3 9.8 97 1001.0 18.3 S 22.1 0.0 1.2
09:41 10.3 9.8 97 1000.9 17.4 SE 22.1 0.0 1.2
09:42 10.3 9.8 97 1001.0 19.7 SE 22.1 0.0 1.2
09:43 10.3 9.8 97 1001.1 14.5 S 22.1 0.0 1.2
09:44 10.4 9.9 97 1001.0 13.0 E 22.1 0.0 1.2
09:45 10.4 9.9 97 1001.0 13.0 E 22.1 0.0 1.2
09:46 10.4 9.9 97 1000.9 23.5 SSE 23.5 0.0 1.2
09:47 10.4 9.9 97 1000.9 22.8 SE 23.5 0.0 1.2
09:48 10.5 9.9 96 1000.9 19.0 S 23.5 0.0 1.2
09:50 10.5 9.9 96 1001.0 19.7 SE 23.5 0.0 1.2
09:51 10.6 10.0 96 1001.1 23.5 SE 23.5 0.0 1.2
09:52 10.6 10.0 96 1001.1 21.3 SSW 23.5 0.0 1.2
09:53 10.6 10.0 96 1001.1 19.7 NE 23.5 0.0 1.2
09:54 10.7 10.1 96 1001.0 22.1 S 23.5 0.0 1.2
09:55 10.7 10.1 96 1001.0 16.8 SW 23.5 0.0 1.2
09:56 10.8 10.2 96 1001.0 22.1 S 23.5 0.0 1.2
09:57 10.8 10.2 96 1001.2 20.6 WNW 23.5 0.0 1.2
09:58 10.8 10.2 96 1001.3 19.0 SE 23.5 0.0 1.2
09:59 10.9 10.3 96 1001.2 20.6 SE 23.5 0.0 1.2
10:00 10.9 10.3 96 1001.2 21.3 S 23.5 0.0 1.2
10:01 10.9 10.3 96 1001.1 21.3 S 23.5 0.0 1.2
10:02 10.9 10.3 96 1001.2 18.3 S 22.8 0.0 1.2
10:03 11.0 10.4 96 1001.3 19.7 S 22.8 0.0 1.2
10:04 11.0 10.4 96 1001.2 18.3 S 22.8 0.0 1.2
10:05 11.0 10.4 96 1001.2 18.3 S 22.8 0.0 1.2
10:06 11.0 10.2 95 1001.0 19.7 S 22.8 0.0 1.2
10:07 11.0 10.2 95 1001.2 20.6 SE 21.3 0.0 1.2
10:08 11.1 10.3 95 1001.1 19.7 SE 21.3 0.0 1.2
10:09 11.1 10.3 95 1001.1 20.6 SE 21.3 0.0 1.2
10:11 11.1 10.3 95 1001.0 20.6 S 22.1 0.0 1.2
10:12 11.1 10.3 95 1000.9 19.0 S 22.1 0.0 1.2
10:13 11.1 10.3 95 1001.0 16.8 SE 22.1 0.0 1.2
10:14 11.1 10.3 95 1000.9 18.3 S 22.1 0.0 1.2
10:15 11.1 10.3 95 1000.8 22.1 SE 22.1 0.0 1.2
10:16 11.2 10.4 95 1000.9 23.5 S 23.5 0.0 1.2
10:17 11.2 10.4 95 1000.9 18.3 S 23.5 0.0 1.2
10:18 11.2 10.4 95 1000.9 24.4 S 24.4 0.0 1.2
10:19 11.2 10.4 95 1000.8 19.7 SE 24.4 0.0 1.2
10:20 11.2 10.4 95 1000.8 20.6 S 24.4 0.0 1.2
10:21 11.2 10.4 95 1001.0 22.8 E 24.4 0.0 1.2
10:22 11.3 10.5 95 1001.0 23.5 SE 24.4 0.0 1.2
10:23 11.2 10.4 95 1000.8 19.7 SE 24.4 0.0 1.2
10:25 11.3 10.4 94 1000.9 27.3 SE 27.3 0.0 1.2
10:26 11.3 10.4 94 1000.7 26.6 S 27.3 0.0 1.2
10:27 11.3 10.4 94 1000.7 25.1 SE 27.3 0.0 1.2
10:28 11.3 10.4 94 1000.7 15.9 SE 27.3 0.0 1.2
10:29 11.3 10.4 94 1000.5 19.0 SE 27.3 0.0 1.2
10:30 11.3 10.4 94 1000.8 14.5 SW 27.3 0.0 1.2
10:31 11.3 10.4 94 1000.6 19.0 SE 27.3 0.0 1.2
10:32 11.3 10.4 94 1000.4 25.1 SE 27.3 0.0 1.2
10:33 11.3 10.4 94 1000.4 21.3 S 27.3 0.0 1.2
10:34 11.3 10.4 94 1000.7 20.6 SSW 27.3 0.0 1.2
10:35 11.3 10.2 93 1000.7 22.8 S 26.6 0.0 1.2
10:36 11.3 10.2 93 1000.5 24.4 ESE 26.6 0.0 1.2
10:37 11.3 10.2 93 1000.6 25.9 S 25.9 0.0 1.2
10:38 11.3 10.2 93 1000.5 22.8 SE 25.9 0.0 1.2
10:39 11.3 10.2 93 1000.3 27.3 SE 27.3 0.0 1.2
10:41 11.3 10.2 93 1000.3 24.4 SE 27.3 0.0 1.2
10:42 11.3 10.2 93 1000.2 27.3 SE 28.2 0.0 1.2
10:43 11.3 10.2 93 1000.2 23.5 SE 28.2 0.0 1.2
10:44 11.3 10.1 92 1000.1 21.3 SE 28.2 0.0 1.2
10:45 11.3 10.1 92 999.9 20.6 SE 28.2 0.0 1.2
10:46 11.3 10.1 92 1000.0 26.6 SW 28.2 0.0 1.2
10:47 11.3 10.1 92 999.9 29.8 SW 29.8 0.0 1.2
10:48 11.3 10.1 92 999.9 28.2 SE 29.8 0.0 1.2
10:49 11.3 10.1 92 1000.0 22.8 SE 29.8 0.0 1.2
10:50 11.3 10.1 92 999.9 16.8 S 29.8 0.0 1.2
10:51 11.3 10.1 92 999.7 17.4 SE 29.8 0.0 1.2
10:52 11.3 10.1 92 999.7 27.3 SE 29.8 0.0 1.2
10:53 11.3 10.1 92 999.8 23.5 SE 29.8 0.0 1.2
10:55 11.3 10.1 92 999.7 27.3 SE 29.8 0.0 1.2
10:56 11.3 10.1 92 999.6 21.3 SE 29.8 0.0 1.2
10:57 11.3 10.1 92 999.7 22.8 S 28.2 0.0 1.2
10:58 11.3 10.1 92 999.6 22.1 S 28.2 0.0 1.2
10:59 11.3 10.1 92 999.7 21.3 SE 27.3 0.0 1.2
11:00 11.3 10.1 92 999.6 22.8 SE 27.3 0.0 1.2
11:01 11.3 10.1 92 999.4 22.8 SE 27.3 0.0 1.2
11:02 11.4 10.1 92 999.4 22.8 S 27.3 0.0 1.2
11:03 11.4 10.1 92 999.6 21.3 S 27.3 0.0 1.2
11:04 11.4 10.1 92 999.5 28.9 S 28.9 0.0 1.2
11:05 11.4 10.1 92 999.5 28.9 S 28.9 0.0 1.2
11:06 11.4 10.1 92 999.4 28.2 SE 28.9 0.0 1.2
11:07 11.4 10.1 92 999.4 25.9 S 28.9 0.0 1.2
11:08 11.4 10.1 92 999.4 20.6 SE 28.9 0.0 1.2
11:09 11.4 10.1 92 999.4 23.5 S 28.9 0.0 1.2
11:10 11.4 10.1 92 999.3 20.6 SE 28.9 0.0 1.2
11:11 11.4 10.1 92 999.1 22.1 SE 28.9 0.0 1.2
11:12 11.4 10.1 92 999.3 24.4 SE 28.9 0.0 1.2
11:14 11.4 10.1 92 999.1 20.6 S 28.9 0.0 1.2
11:15 11.4 10.1 92 999.0 28.2 SE 28.9 0.0 1.2
11:16 11.5 10.2 92 999.1 26.6 S 28.2 0.0 1.2
11:17 11.5 10.2 92 999.0 25.9 SE 28.2 0.0 1.2
11:18 11.5 10.2 92 998.9 17.4 SE 28.2 0.0 1.2
11:19 11.5 10.2 92 999.0 19.0 S 28.2 0.0 1.2
11:20 11.5 10.2 92 998.9 22.1 S 28.2 0.0 1.2
11:21 11.5 10.2 92 998.8 20.6 SE 28.2 0.0 1.2
11:22 11.5 10.2 92 998.9 27.3 SE 28.2 0.0 1.2
11:23 11.5 10.2 92 998.9 25.9 SE 28.2 0.0 1.2
11:24 11.5 10.2 92 998.9 25.1 S 28.2 0.0 1.2
11:25 11.5 10.2 92 999.0 19.0 S 28.2 0.0 1.2
11:26 11.5 10.2 92 998.9 19.0 SE 27.3 0.0 1.2
11:27 11.5 10.2 92 998.8 20.6 S 27.3 0.0 1.2
11:29 11.5 10.2 92 998.8 20.6 SE 27.3 0.0 1.2
11:30 11.5 10.2 92 998.7 23.5 SE 27.3 0.0 1.2
11:31 11.6 10.3 92 998.8 28.2 SE 28.2 0.0 1.2
11:32 11.6 10.3 92 998.5 21.3 S 28.2 0.0 1.2
11:33 11.6 10.3 92 998.6 32.0 SE 32.0 0.0 1.2
11:34 11.5 10.2 92 998.5 30.4 SE 32.0 0.0 1.2
11:35 11.6 10.3 92 998.7 20.6 SE 32.0 0.0 1.2
11:36 11.6 10.3 92 998.6 23.5 SE 32.0 0.0 1.2
11:37 11.6 10.3 92 998.5 24.4 S 32.0 0.0 1.2
11:38 11.6 10.3 92 998.5 24.4 S 32.0 0.0 1.2
11:39 11.6 10.3 92 998.3 25.9 S 35.8 0.0 1.2
11:40 11.6 10.3 92 998.5 22.1 SE 35.8 0.0 1.2
11:41 11.6 10.3 92 998.4 22.1 SE 35.8 0.0 1.2
11:42 11.6 10.3 92 998.3 25.9 S 35.8 0.0 1.2
11:44 11.6 10.3 92 998.2 25.1 SE 35.8 0.0 1.2
11:45 11.6 10.3 92 998.2 22.1 S 35.8 0.0 1.2
11:46 11.6 10.3 92 998.3 23.5 SE 35.8 0.0 1.2
11:47 11.6 10.3 92 998.3 24.4 SE 35.8 0.0 1.2
11:48 11.6 10.3 92 998.4 22.8 S 35.8 0.0 1.2
11:49 11.6 10.3 92 998.1 24.4 S 25.9 0.0 1.2
11:50 11.6 10.3 92 998.2 26.6 S 26.6 0.0 1.2
11:51 11.6 10.3 92 998.2 30.4 SE 30.4 0.0 1.2
11:52 11.6 10.3 92 998.1 32.7 SE 32.7 0.0 1.2
11:53 11.6 10.3 92 998.1 30.4 SE 32.7 0.0 1.2
11:54 11.6 10.3 92 998.2 21.3 S 32.7 0.0 1.2
11:55 11.5 10.2 92 998.1 26.6 S 32.7 0.0 1.2
11:56 11.5 10.2 92 998.0 20.6 S 32.7 0.0 1.2
11:58 11.5 10.2 92 998.0 24.4 S 32.7 0.0 1.2
11:59 11.5 10.2 92 997.8 25.9 E 32.7 0.0 1.2
12:00 11.5 10.2 92 997.9 22.8 S 32.7 0.0 1.2
12:01 11.5 10.2 92 997.8 22.8 S 32.7 0.0 1.2
12:02 11.5 10.2 92 997.8 23.5 S 30.4 0.0 1.2
12:03 11.5 10.2 92 997.7 19.0 SE 27.3 0.0 1.3
12:04 11.4 10.1 92 997.8 21.3 S 27.3 0.8 1.3
12:05 11.4 10.1 92 997.8 23.5 SE 27.3 0.8 1.3
12:06 11.4 10.1 92 997.8 23.5 SE 27.3 0.8 1.3
12:07 11.4 10.1 92 997.7 31.1 S 31.1 0.8 1.3
12:08 11.4 10.1 92 997.7 28.2 S 31.1 0.8 1.3
12:09 11.4 10.1 92 997.6 25.9 SE 31.1 0.0 1.3
12:10 11.4 10.1 92 997.5 24.4 SE 31.1 0.0 1.3
12:11 11.4 10.1 92 997.6 25.1 SE 31.1 0.0 1.3
12:13 11.4 10.3 93 997.5 27.3 SE 31.1 0.8 1.3
12:14 11.4 10.3 93 997.4 22.8 S 31.1 0.8 1.4
12:15 11.3 10.2 93 997.3 18.3 S 31.1 1.5 1.4
12:16 11.3 10.2 93 997.4 21.3 SE 31.1 1.5 1.4
12:17 11.3 10.2 93 997.4 22.8 S 28.2 0.8 1.4
12:18 11.3 10.2 93 997.4 21.3 S 27.3 1.5 1.4
12:19 11.3 10.2 93 997.4 23.5 S 27.3 2.3 1.5
12:20 11.2 10.1 93 997.4 22.1 SE 27.3 1.5 1.5
12:21 11.2 10.1 93 997.4 22.1 SE 27.3 1.5 1.5
12:22 11.2 10.1 93 997.2 19.7 SE 27.3 1.5 1.5
12:23 11.2 10.1 93 997.2 21.3 E 23.5 1.5 1.6
12:24 11.2 10.3 94 997.2 23.5 SE 23.5 0.8 1.6
12:25 11.2 10.3 94 997.2 39.6 SE 39.6 1.5 1.6
12:26 11.2 10.3 94 997.1 24.4 SE 39.6 1.5 1.6
12:28 11.1 10.2 94 996.9 31.1 SE 39.6 1.5 1.7
12:29 11.1 10.2 94 996.9 25.9 S 39.6 2.3 1.8
12:30 11.1 10.2 94 997.0 24.4 SE 39.6 1.5 1.8
12:31 11.1 10.2 94 996.9 22.1 SE 39.6 1.5 1.8
12:32 11.1 10.2 94 996.8 20.6 SE 39.6 0.8 1.8
12:33 11.1 10.2 94 997.0 23.5 SE 39.6 1.5 1.8
12:34 11.1 10.2 94 996.8 23.5 S 39.6 0.8 1.9
12:35 11.1 10.3 95 996.8 21.3 S 31.1 1.5 1.9
12:36 11.1 10.3 95 996.7 21.3 E 31.1 1.5 1.9
12:37 11.1 10.3 95 996.7 21.3 S 31.1 2.3 2.0
12:38 11.1 10.3 95 996.5 28.2 S 31.1 1.5 2.0
12:39 11.1 10.3 95 996.8 23.5 S 28.2 2.3 2.0
12:40 11.1 10.3 95 996.5 21.3 SE 28.2 1.5 2.0
12:42 11.1 10.3 95 996.4 22.1 SE 28.2 1.5 2.1
12:43 11.1 10.3 95 996.5 22.8 SE 28.2 2.3 2.1
12:44 11.1 10.3 95 996.3 18.3 ESE 28.2 1.5 2.1
12:45 11.0 10.4 96 996.5 22.8 SSW 28.2 1.5 2.2
12:46 11.0 10.4 96 996.3 21.3 SSE 28.2 2.3 2.3
12:47 11.0 10.4 96 996.3 22.8 SE 28.2 2.3 2.3
12:48 11.0 10.4 96 996.2 25.9 ESE 25.9 2.3 2.3
12:49 11.0 10.4 96 996.3 18.3 SE 25.9 2.3 2.4
12:50 11.0 10.4 96 996.3 18.3 SE 25.9 3.0 2.4
12:51 11.0 10.4 96 996.0 20.6 S 25.9 2.3 2.4
12:52 11.0 10.4 96 996.1 18.3 SE 25.9 2.3 2.5
12:53 11.0 10.4 96 996.2 21.3 SE 25.9 2.3 2.5
12:54 11.0 10.4 96 996.0 25.1 SE 25.9 2.3 2.5
12:55 11.0 10.4 96 996.1 26.6 SE 26.6 3.0 2.6
12:57 11.0 10.4 96 996.1 23.5 SE 26.6 3.0 2.7
12:58 11.0 10.4 96 995.8 28.9 SE 28.9 2.3 2.8
12:59 11.0 10.5 97 995.9 27.3 SE 28.9 3.0 2.8
13:00 10.9 10.4 97 995.9 21.3 S 28.9 3.0 2.9
13:01 10.9 10.4 97 995.9 21.3 S 28.9 3.0 2.9
13:02 10.9 10.4 97 995.8 29.8 SE 29.8 2.3 3.0
13:03 10.9 10.4 97 995.9 20.6 S 29.8 3.8 3.0
13:04 10.9 10.4 97 995.7 25.9 SE 29.8 3.8 3.1
13:05 10.9 10.4 97 995.8 28.2 SE 29.8 3.0 3.2
13:06 10.9 10.4 97 995.9 27.3 S 29.8 3.8 3.3
13:07 10.9 10.4 97 995.4 20.6 SE 29.8 4.5 3.3
13:08 10.9 10.4 97 995.5 20.6 S 29.8 4.5 3.4
13:09 10.9 10.4 97 995.5 21.3 S 29.8 3.8 3.5
13:10 10.9 10.4 97 995.4 20.6 SE 29.8 4.5 3.6
13:11 10.9 10.4 97 995.3 15.9 SE 29.8 4.5 3.7
13:12 10.9 10.4 97 995.6 22.8 S 29.8 5.3 3.7
13:13 10.9 10.4 97 995.3 27.3 S 29.8 4.5 3.8
13:14 10.9 10.6 98 995.3 19.0 SE 29.8 5.3 3.8
13:15 10.9 10.6 98 995.3 25.1 SE 29.8 3.8 3.9
13:17 10.9 10.6 98 995.3 22.8 S 29.8 3.0 4.0
13:18 10.9 10.6 98 995.2 28.2 E 28.2 3.0 4.1
13:19 10.8 10.5 98 995.0 15.9 SSW 28.2 3.0 4.2
13:20 10.9 10.6 98 995.3 24.4 SSW 28.2 3.8 4.2
13:21 10.9 10.6 98 995.1 36.5 SE 36.5 3.0 4.3
13:22 10.8 10.5 98 995.1 31.1 SE 36.5 3.8 4.3
13:23 10.9 10.6 98 995.1 25.1 S 36.5 3.8 4.4
13:24 10.8 10.5 98 994.9 27.3 E 36.5 4.5 4.5
13:27 10.8 10.5 98 994.8 28.2 SE 36.5 4.5 4.8
13:28 10.8 10.5 98 994.8 29.8 SE 36.5 5.3 4.9
13:29 10.8 10.5 98 994.7 27.3 SE 36.5 5.3 4.9
13:30 10.8 10.5 98 994.5 28.2 S 36.5 4.5 5.0
13:31 10.8 10.7 99 994.8 23.5 S 36.5 5.3 5.1
13:32 10.8 10.7 99 994.5 32.7 SSE 33.6 6.0 5.2
13:33 10.8 10.7 99 994.4 34.2 SE 34.2 5.3 5.3
13:34 10.8 10.7 99 994.4 24.4 SE 34.2 4.5 5.4
13:35 10.8 10.7 99 994.3 29.8 S 34.2 5.3 5.4
13:36 10.8 10.7 99 994.4 28.2 SE 34.2 5.3 5.5
13:37 10.7 10.6 99 994.3 24.4 SE 34.2 4.5 5.5
13:38 10.7 10.6 99 994.3 37.4 SE 37.4 4.5 5.7
13:39 10.7 10.6 99 994.1 33.6 SSE 37.4 4.5 5.7
13:41 10.7 10.6 99 994.0 35.8 S 37.4 4.5 5.9
13:42 10.7 10.6 99 994.0 19.7 SE 37.4 4.5 5.9
13:43 10.7 10.6 99 993.9 31.1 SE 37.4 3.8 6.0
13:44 10.7 10.6 99 993.9 24.4 SE 37.4 4.5 6.1
13:45 10.7 10.6 99 993.8 24.4 SE 37.4 3.8 6.2
13:46 10.7 10.6 99 993.8 23.5 SE 37.4 3.8 6.2
13:47 10.7 10.6 99 993.7 26.6 SE 37.4 3.8 6.2
13:48 10.7 10.6 99 993.6 22.8 S 37.4 4.5 6.4
13:49 10.7 10.6 99 993.6 22.8 S 35.8 3.8 6.4
13:50 10.7 10.6 99 993.5 25.1 SSE 35.8 3.0 6.4
13:51 10.7 10.6 99 993.4 22.1 SE 31.1 3.0 6.4
13:52 10.8 10.7 99 993.5 25.9 S 31.1 2.3 6.4
13:53 10.7 10.6 99 993.4 21.3 SE 31.1 2.3 6.5
13:54 10.8 10.7 99 993.3 26.6 SE 28.9 2.3 6.6
13:55 10.8 10.7 99 993.5 25.9 SE 28.9 2.3 6.6
13:56 10.8 10.7 99 993.3 34.9 SE 34.9 2.3 6.6
13:57 10.8 10.7 99 993.3 34.9 SE 34.9 3.0 6.7
13:58 10.8 10.7 99 993.2 28.9 SE 34.9 2.3 6.7
13:59 10.8 10.7 99 993.3 32.0 S 34.9 1.5 6.7
14:00 10.8 10.7 99 993.1 38.0 S 38.0 3.0 6.8
14:01 10.8 10.7 99 993.2 38.0 S 38.0 2.3 6.8
14:02 10.8 10.7 99 993.0 22.8 SE 38.0 1.5 6.8
14:03 10.8 10.7 99 993.2 36.5 ESE 38.0 1.5 6.9
14:04 10.8 10.7 99 993.0 35.8 SE 38.0 2.3 6.9
14:05 10.8 10.7 99 993.3 29.8 SSE 38.0 1.5 6.9
14:06 10.8 10.7 99 993.0 34.9 SE 38.0 1.5 6.9
14:07 10.8 10.7 99 992.9 38.7 SE 38.7 1.5 7.0
14:08 10.8 10.7 99 992.8 24.4 SE 38.7 3.0 7.1
14:09 10.8 10.7 99 992.8 25.9 SW 38.7 2.3 7.1
14:10 10.8 10.7 99 992.9 24.4 S 38.7 2.3 7.1
14:11 10.8 10.7 99 992.4 21.3 SE 38.7 2.3 7.2
14:12 10.8 10.7 99 992.9 28.9 SE 38.7 3.0 7.2
14:13 10.8 10.7 99 992.7 33.6 S 38.7 2.3 7.3
14:14 10.8 10.7 99 992.5 28.2 S 38.7 3.0 7.3
14:15 10.8 10.7 99 992.4 23.5 SE 38.7 2.3 7.3
14:16 10.8 10.7 99 992.8 30.4 SE 38.7 3.0 7.4
14:17 10.8 10.7 99 992.5 24.4 SE 38.7 3.0 7.4
14:18 10.9 10.8 99 992.6 32.7 SE 33.6 3.0 7.6
14:20 10.9 10.8 99 992.4 26.6 SE 33.6 3.8 7.6
14:21 10.9 10.8 99 992.2 27.3 SE 33.6 3.8 7.7
14:22 10.9 10.8 99 992.4 34.9 S 34.9 3.0 7.8
14:23 10.9 10.8 99 992.3 24.4 S 34.9 3.8 7.9
14:24 10.9 10.8 99 992.3 22.8 SE 34.9 4.5 8.0
14:25 10.9 10.8 99 992.3 30.4 SE 34.9 4.5 8.1
14:26 10.9 10.8 99 992.3 25.9 S 34.9 4.5 8.1
14:27 10.9 10.8 99 992.2 38.0 SE 38.0 5.3 8.3
14:28 10.9 10.8 99 992.2 32.7 SE 38.0 8.3 8.5
14:29 10.9 10.8 99 992.1 32.0 SE 38.0 7.6 8.6
14:30 10.9 10.8 99 991.9 22.8 SE 38.0 8.3 8.9
14:31 10.9 10.8 99 991.7 31.1 SE 38.0 9.8 8.9
14:32 10.9 10.8 99 991.7 25.1 SE 38.0 11.3 9.1
14:33 10.9 10.8 99 991.8 27.3 SE 38.0 8.3 9.2
14:34 10.9 10.8 99 991.8 28.9 SE 38.0 8.3 9.3
14:35 10.9 10.8 99 991.6 24.4 SE 38.0 7.6 9.4
14:36 10.9 10.8 99 991.6 25.1 SE 38.0 7.6 9.5
14:37 10.9 10.8 99 991.7 22.1 SE 32.7 6.0 9.6
14:38 10.9 10.8 99 991.4 28.2 SE 32.0 5.3 9.7
14:39 10.9 10.8 99 991.6 32.0 S 32.0 5.3 9.8
14:40 10.8 10.7 99 991.5 27.3 SE 32.0 6.8 10.0
14:41 10.9 10.8 99 991.4 28.2 SE 32.0 5.3 10.0
14:42 10.9 10.8 99 991.6 33.6 S 33.6 5.3 10.1
14:43 10.8 10.7 99 991.7 25.9 SE 33.6 5.3 10.1
14:44 10.9 10.8 99 991.5 32.0 SE 33.6 6.0 10.3
14:45 10.9 10.8 99 991.5 32.0 SE 33.6 4.5 10.3
14:46 10.8 10.7 99 991.3 25.9 E 33.6 4.5 10.4
14:47 10.9 10.8 99 991.2 25.1 SE 33.6 4.5 10.5
14:48 10.9 10.8 99 991.3 22.1 SE 33.6 5.3 10.5
14:49 10.9 10.8 99 991.2 27.3 SE 33.6 5.3 10.6
14:50 10.9 10.8 99 991.2 29.8 S 33.6 5.3 10.8
14:51 10.9 10.8 99 991.1 26.6 SE 33.6 5.3 10.8
14:52 10.8 10.7 99 990.8 32.7 SE 32.7 6.0 10.9
14:53 10.9 10.8 99 991.0 32.7 SE 32.7 4.5 11.0
14:54 10.9 10.8 99 990.9 25.9 ESE 32.7 3.8 11.0
14:55 10.9 10.8 99 990.8 30.4 SE 32.7 3.0 11.0
14:56 10.9 10.8 99 990.7 27.3 ENE 32.7 2.3 11.0
14:57 10.9 10.8 99 990.8 25.9 ENE 32.7 1.5 11.0
14:58 10.9 10.8 99 991.0 27.3 SE 32.7 1.5 11.0
14:59 10.9 10.8 99 990.7 27.3 SE 33.6 0.8 11.0
15:00 10.9 10.8 99 990.7 27.3 SE 33.6 0.8 11.0
15:01 10.9 10.8 99 990.7 27.3 SE 33.6 0.8 11.0
15:02 10.9 10.8 99 990.5 36.5 SSW 36.5 0.0 11.0
15:03 10.9 10.8 99 990.5 31.1 SE 36.5 0.0 11.1
15:04 10.9 10.8 99 990.7 32.0 SE 36.5 0.8 11.1
15:05 10.9 10.8 99 990.6 28.2 SE 36.5 0.8 11.1
15:06 10.9 10.8 99 990.3 25.1 E 36.5 1.5 11.2
15:07 10.9 10.8 99 990.3 25.1 E 36.5 1.5 11.2
15:08 10.9 10.8 99 990.3 29.8 SSE 36.5 1.5 11.2
15:09 11.0 10.9 99 990.2 36.5 SE 36.5 0.8 11.2
15:10 11.0 10.9 99 990.2 35.8 SE 36.5 0.8 11.2
15:11 11.0 10.9 99 990.2 33.6 E 36.5 0.0 11.2
15:12 11.0 10.9 99 990.1 27.3 SE 36.5 0.0 11.2
15:13 11.0 10.9 99 989.9 25.9 SE 36.5 0.8 11.2
15:14 11.0 10.9 99 990.0 26.6 S 36.5 0.8 11.2
15:15 11.0 10.9 99 989.9 34.9 S 40.3 0.8 11.2
15:16 11.0 10.9 99 990.1 47.9 S 47.9 0.8 11.3
15:17 11.0 10.9 99 990.0 33.6 ESE 47.9 1.5 11.3
15:18 11.0 10.9 99 989.7 23.5 SE 47.9 0.8 11.3
15:19 11.0 10.9 99 990.1 38.0 SE 47.9 0.8 11.3
15:20 11.0 10.9 99 989.8 35.8 SE 47.9 1.5 11.3
15:21 11.0 10.9 99 989.8 36.5 SE 47.9 2.3 11.4
15:22 11.1 11.0 99 989.8 37.4 SE 47.9 1.5 11.4
15:23 11.1 11.0 99 989.6 36.5 SSE 47.9 1.5 11.4
15:24 11.1 11.0 99 990.0 24.4 SE 47.9 1.5 11.4
15:25 11.1 11.0 99 989.7 38.0 E 47.9 0.8 11.4
15:26 11.1 11.0 99 989.6 22.8 S 47.9 0.0 11.4
15:27 11.1 11.0 99 989.4 27.3 E 38.0 0.0 11.4
15:28 11.1 11.0 99 989.7 39.6 SSW 39.6 0.0 11.5
15:29 11.1 11.0 99 989.7 37.4 SE 39.6 0.8 11.5
15:30 11.1 11.0 99 989.8 40.3 SE 40.3 0.8 11.5
15:31 11.2 11.1 99 989.7 36.5 SE 40.3 0.8 11.5
15:32 11.2 11.1 99 989.5 34.9 S 40.3 0.8 11.5
15:33 11.2 11.1 99 989.5 26.6 SE 40.3 1.5 11.5
15:34 11.2 11.1 99 989.4 24.4 S 40.3 0.8 11.6
15:35 11.2 11.1 99 989.8 22.8 SE 40.3 1.5 11.6
15:36 11.2 11.1 99 989.5 26.6 SE 40.3 2.3 11.7
15:37 11.2 11.1 99 989.3 28.9 SE 40.3 2.3 11.7
15:38 11.2 11.1 99 989.4 32.7 SE 40.3 1.5 11.7
15:39 11.2 11.1 99 989.4 39.6 SE 40.3 2.3 11.7
15:40 11.2 11.1 99 989.3 20.6 SE 40.3 1.5 11.7
15:41 11.2 11.1 99 989.2 35.8 SE 39.6 1.5 11.8
15:42 11.2 11.1 99 989.0 32.0 E 39.6 1.5 11.8
15:43 11.2 11.1 99 989.0 20.6 SE 39.6 2.3 11.8
15:44 11.2 11.1 99 989.1 36.5 SE 39.6 1.5 11.9
15:45 11.2 11.1 99 989.1 28.2 SE 39.6 2.3 11.9
15:46 11.2 11.1 99 989.0 36.5 SE 39.6 1.5 11.9
15:47 11.2 11.1 99 989.1 30.4 SE 39.6 1.5 11.9
15:48 11.3 11.2 99 988.9 29.8 E 39.6 0.8 12.0
15:49 11.2 11.1 99 988.8 34.2 S 39.6 1.5 12.0
15:50 11.3 11.2 99 988.8 25.9 SE 39.6 0.8 12.0
15:51 11.3 11.2 99 988.7 28.2 S 39.6 0.8 12.0
15:52 11.3 11.2 99 988.6 41.2 SE 41.2 1.5 12.0
15:53 11.3 11.2 99 988.9 32.7 SE 41.2 1.5 12.0
15:54 11.3 11.2 99 988.7 32.0 SE 41.2 0.8 12.0
15:55 11.3 11.2 99 988.5 25.1 S 41.2 0.8 12.0
15:56 11.3 11.2 99 988.6 22.8 S 41.2 1.5 12.1
15:57 11.3 11.2 99 988.6 33.6 SE 41.2 0.8 12.1
15:58 11.4 11.3 99 988.5 37.4 SE 41.2 0.8 12.2
15:59 11.4 11.3 99 988.6 39.6 S 41.2 1.5 12.2
16:00 11.4 11.3 99 988.6 39.6 S 41.2 1.5 12.2
16:01 11.4 11.3 99 988.4 39.6 S 41.2 0.8 12.2
16:02 11.4 11.3 99 988.4 32.7 SE 40.3 0.8 12.3
16:04 11.4 11.3 99 988.3 36.5 E 40.3 1.5 12.3
16:05 11.4 11.3 99 988.2 36.5 SE 40.3 2.3 12.4
16:06 11.5 11.4 99 988.3 32.7 E 40.3 3.0 12.5
16:07 11.5 11.4 99 988.2 34.9 SE 45.6 5.3 12.7
16:08 11.5 11.4 99 988.3 27.3 SE 45.6 5.3 12.8
16:09 11.5 11.4 99 988.3 37.4 SE 45.6 6.0 12.9
16:10 11.5 11.4 99 988.3 32.0 SE 45.6 6.8 12.9
16:11 11.5 11.4 99 988.4 33.6 SE 45.6 7.6 13.0
16:12 11.6 11.5 99 988.4 33.6 S 45.6 6.0 13.1
16:13 11.6 11.5 99 988.3 32.0 SE 45.6 6.0 13.2
16:14 11.6 11.5 99 988.4 25.9 SE 45.6 6.0 13.5
16:15 11.6 11.5 99 988.5 25.9 SE 45.6 9.8 13.7
16:16 11.6 11.5 99 988.5 31.1 S 45.6 9.8 13.9
16:17 11.6 11.5 99 988.5 33.6 S 45.6 9.8 13.9
16:18 11.7 11.6 99 988.4 29.8 S 37.4 9.8 14.2
16:19 11.7 11.6 99 988.6 30.4 S 37.4 11.3 14.4
16:20 11.7 11.6 99 988.5 38.0 S 38.0 8.3 14.6
16:21 11.7 11.6 99 988.6 30.4 SE 38.0 8.3 14.7
16:22 11.7 11.6 99 988.4 27.3 SE 38.0 9.1 14.8
16:23 11.8 11.7 99 988.5 28.2 SE 38.0 9.1 14.9
16:24 11.8 11.7 99 988.5 35.8 SE 38.0 7.6 15.0
16:25 11.8 11.7 99 988.4 33.6 SE 38.0 6.8 15.1
16:26 11.8 11.7 99 988.5 32.7 S 38.0 6.0 15.1
16:27 11.8 11.7 99 988.3 28.9 SE 38.0 5.3 15.3
16:28 11.9 11.8 99 988.4 27.3 S 38.0 6.0 15.4
16:29 11.9 11.8 99 988.4 27.3 S 38.0 6.0 15.4
16:30 11.9 11.8 99 988.8 32.7 SE 38.0 5.3 15.5
16:31 12.0 11.9 99 988.7 28.2 S 35.8 5.3 15.6
16:32 12.0 11.9 99 988.7 30.4 S 35.8 5.3 15.6
16:33 12.0 11.9 99 988.6 22.8 S 35.8 3.8 15.6
16:34 12.0 11.9 99 988.4 21.3 SE 35.8 3.8 15.7
16:35 12.1 12.0 99 988.3 28.9 SE 33.6 3.0 15.7
16:36 12.1 12.0 99 988.3 36.5 S 36.5 2.3 15.7
16:37 12.1 12.0 99 988.5 32.0 S 36.5 2.3 15.7
16:38 12.2 12.1 99 988.6 22.1 S 36.5 1.5 15.7
16:39 12.2 12.1 99 988.8 25.1 SE 36.5 0.8 15.7
16:40 12.2 12.1 99 988.9 22.8 S 36.5 0.8 15.8
16:41 12.2 12.1 99 989.0 25.9 SE 36.5 1.5 15.8
16:42 12.3 12.2 99 988.8 24.4 SSE 36.5 0.8 15.8
16:43 12.3 12.2 99 988.9 29.8 SE 36.5 0.8 15.9
16:44 12.3 12.2 99 988.7 26.6 SW 36.5 1.5 15.9
16:45 12.3 12.2 99 988.9 23.5 S 36.5 1.5 15.9
16:46 12.4 12.3 99 988.8 17.4 S 36.5 1.5 15.9
16:47 12.4 12.3 99 989.0 22.8 SW 29.8 1.5 16.0
16:48 12.4 12.3 99 988.8 19.0 SE 29.8 2.3 16.0
16:49 12.4 12.3 99 988.8 23.5 S 29.8 2.3 16.1
16:50 12.4 12.3 99 988.7 21.3 S 29.8 2.3 16.1
16:51 12.4 12.3 99 988.4 21.3 S 29.8 1.5 16.1
16:52 12.5 12.4 99 988.5 19.0 S 29.8 1.5 16.1
16:53 12.5 12.4 99 988.8 23.5 S 29.8 1.5 16.1
16:54 12.5 12.4 99 988.9 19.0 SW 26.6 0.8 16.1
16:55 12.6 12.5 99 989.0 22.1 SE 25.1 0.8 16.2
16:56 12.6 12.5 99 989.0 15.9 SSW 25.1 1.5 16.2
16:57 12.6 12.5 99 989.2 23.5 S 25.1 1.5 16.3
16:58 12.6 12.5 99 989.1 25.9 S 25.9 1.5 16.3
16:59 12.6 12.5 99 989.2 22.8 SE 30.4 2.3 16.5
17:00 12.6 12.5 99 989.2 22.8 SE 30.4 4.5 16.5
17:01 12.6 12.5 99 989.2 22.8 SE 30.4 3.8 16.5
17:02 12.6 12.5 99 989.4 19.7 S 30.4 3.8 16.8
17:03 12.5 12.4 99 989.2 28.2 S 30.4 6.0 16.8
17:04 12.5 12.4 99 989.2 19.7 S 30.4 6.8 16.9
17:05 12.4 12.3 99 989.2 24.4 S 30.4 5.3 16.9
17:06 12.3 12.2 99 989.1 22.1 SW 30.4 5.3 17.0
17:07 12.2 12.1 99 989.1 19.7 S 30.4 6.0 17.1
17:08 12.2 12.1 99 989.1 16.8 SW 30.4 3.8 17.1
17:09 12.1 12.0 99 989.1 18.3 SE 28.2 2.3 17.1
17:10 12.0 11.9 99 989.2 19.0 S 28.2 1.5 17.1
17:11 12.0 11.9 99 989.3 19.7 S 28.2 2.3 17.2
17:12 12.0 11.9 99 989.4 15.9 S 28.2 2.3 17.2
17:13 11.9 11.8 99 989.2 18.3 SE 24.4 1.5 17.3
17:14 11.9 11.8 99 989.3 16.8 S 24.4 2.3 17.3
17:15 11.9 11.8 99 989.3 16.8 WSW 23.5 2.3 17.3
17:16 11.9 11.8 99 989.3 20.6 SW 21.3 2.3 17.4
17:17 11.9 11.8 99 989.3 18.3 S 21.3 2.3 17.4
17:18 11.9 11.8 99 989.3 13.6 SE 21.3 2.3 17.5
17:19 11.9 11.8 99 989.3 14.5 SW 21.3 2.3 17.5
17:20 11.9 11.8 99 989.0 15.9 S 21.3 2.3 17.5
17:21 11.9 11.8 99 989.1 15.2 S 21.3 2.3 17.5
17:22 11.9 11.8 99 989.0 13.6 SW 20.6 2.3 17.6
17:23 11.9 11.8 99 989.1 13.6 S 20.6 2.3 17.6
17:24 12.0 11.9 99 989.1 14.5 S 20.6 2.3 17.6
17:25 11.9 11.8 99 989.1 13.0 SE 20.6 2.3 17.6
17:26 11.9 11.8 99 989.3 16.8 E 20.6 2.3 17.7
17:27 12.0 11.9 99 989.3 19.0 S 19.0 1.5 17.7
17:28 12.0 11.9 99 989.3 17.4 SW 19.0 2.3 17.8
17:29 12.0 11.9 99 989.2 20.6 SSE 20.6 1.5 17.8
17:30 12.0 11.9 99 989.3 15.2 SW 20.6 2.3 17.8
17:31 12.0 11.9 99 989.2 20.6 SW 20.6 1.5 17.8
17:32 11.9 11.8 99 989.2 13.6 SW 20.6 1.5 17.8
17:33 11.9 11.8 99 989.2 15.9 S 20.6 0.8 17.8
17:34 11.9 11.8 99 989.2 14.5 S 20.6 0.8 17.8
17:35 11.9 11.8 99 989.2 18.3 SW 20.6 0.0 17.8
17:36 11.9 11.8 99 989.1 17.4 S 20.6 0.0 17.8
17:37 11.8 11.7 99 989.1 18.3 SW 20.6 0.0 17.8
17:38 11.8 11.7 99 989.0 13.0 S 20.6 0.0 17.8
17:40 11.7 11.6 99 988.9 15.2 S 20.6 0.0 17.8
17:41 11.7 11.6 99 988.8 12.1 S 18.3 0.0 17.8
17:42 11.7 11.6 99 988.7 13.0 S 18.3 0.0 17.8
17:43 11.7 11.6 99 988.7 14.5 S 18.3 0.0 17.8
17:44 11.6 11.5 99 988.4 11.4 S 18.3 0.0 17.8
17:45 11.6 11.5 99 988.3 9.8 S 18.3 0.0 17.8
17:46 11.6 11.5 99 988.2 11.4 SE 18.3 0.0 17.8
17:47 11.6 11.5 99 988.3 13.6 S 15.9 0.0 17.9
17:49 11.6 11.5 99 988.3 11.4 S 15.2 0.8 17.9
17:50 11.6 11.5 99 988.3 13.6 S 15.2 0.8 17.9
17:51 11.6 11.5 99 988.5 15.2 SSW 15.2 0.8 18.0
17:52 11.6 11.5 99 988.3 15.2 S 15.2 1.5 18.0
17:53 11.6 11.5 99 988.5 12.1 S 15.2 0.8 18.0
17:54 11.6 11.5 99 988.4 9.8 SE 15.2 0.8 18.0
17:55 11.6 11.5 99 988.4 11.4 S 15.2 0.8 18.0
17:56 11.6 11.5 99 988.2 11.4 S 15.2 0.8 18.0
17:57 11.6 11.5 99 988.1 13.6 SSW 15.2 0.0 18.0
17:58 11.6 11.5 99 988.2 13.0 SE 15.2 0.0 18.0
17:59 11.6 11.5 99 988.3 9.8 S 15.2 0.0 18.0
18:00 11.6 11.5 99 988.3 9.8 S 15.2 0.0 18.0
18:01 11.6 11.5 99 988.4 9.8 S 15.2 0.0 18.0
18:02 11.6 11.5 99 988.4 12.1 S 15.2 0.0 18.0
18:03 11.6 11.5 99 988.5 13.6 S 13.6 0.0 18.0
18:04 11.6 11.5 99 988.6 14.5 S 14.5 0.0 18.0
18:05 11.6 11.5 99 988.4 13.0 S 14.5 0.0 18.0
18:06 11.5 11.4 99 988.5 15.2 S 15.2 0.0 18.0
18:07 11.5 11.4 99 988.8 13.6 S 15.2 0.0 18.0
18:08 11.5 11.4 99 989.0 13.6 SSW 15.2 0.0 18.0
18:09 11.5 11.4 99 988.9 13.0 S 15.2 0.0 18.0
18:10 11.5 11.4 99 989.1 12.1 S 15.2 0.0 18.0
18:11 11.5 11.4 99 989.1 15.2 SW 17.4 0.0 18.0
18:12 11.5 11.4 99 989.1 16.8 SW 17.4 0.0 18.0
18:13 11.5 11.4 99 989.3 15.9 S 17.4 0.0 18.0
18:14 11.5 11.4 99 989.2 16.8 S 17.4 0.8 18.0
18:15 11.5 11.4 99 989.4 13.6 SW 17.4 0.8 18.0
18:16 11.5 11.4 99 989.3 19.7 SSW 19.7 0.8 18.0
18:17 11.5 11.4 99 989.1 19.7 SW 19.7 0.8 18.0
18:18 11.5 11.4 99 989.2 9.2 SW 19.7 0.8 18.0
18:19 11.5 11.4 99 989.2 12.1 SW 19.7 0.0 18.0
18:20 11.5 11.4 99 989.1 14.5 SW 19.7 0.0 18.0
18:21 11.5 11.4 99 989.1 11.4 WSW 19.7 0.0 18.0
18:22 11.5 11.4 99 989.1 15.2 SE 19.7 0.0 18.0
18:23 11.5 11.4 99 989.2 19.0 SE 19.7 0.0 18.0
18:24 11.5 11.4 99 989.1 15.2 SE 19.7 0.0 18.0
18:25 11.6 11.5 99 989.1 15.2 S 19.7 0.0 18.0
18:27 11.6 11.5 99 989.2 17.4 SE 19.0 0.0 18.0
18:28 11.6 11.5 99 989.2 18.3 SSE 19.0 0.0 18.0
18:30 11.6 11.5 99 989.1 15.9 SE 19.0 0.0 18.0
18:31 11.6 11.5 99 989.0 16.8 SE 19.0 0.0 18.0
18:32 11.6 11.5 99 989.1 16.8 SE 19.0 0.0 18.0
18:33 11.6 11.5 99 989.3 12.1 S 19.0 0.0 18.0
18:34 11.6 11.5 99 989.3 14.5 S 18.3 0.0 18.0
18:35 11.6 11.5 99 989.4 12.1 SE 18.3 0.0 18.0
18:37 11.6 11.5 99 989.2 13.0 S 18.3 0.0 18.0
18:38 11.6 11.5 99 989.1 13.6 S 18.3 0.0 18.1
18:39 11.6 11.5 99 989.2 16.8 SE 16.8 0.8 18.1
18:40 11.6 11.5 99 989.2 13.0 S 16.8 0.8 18.1
18:41 11.6 11.5 99 989.2 17.4 SW 17.4 0.8 18.1
18:42 11.6 11.5 99 989.2 14.5 S 17.4 0.8 18.1
18:43 11.6 11.5 99 989.2 15.9 SE 17.4 0.8 18.1
18:44 11.6 11.5 99 989.4 15.9 S 17.4 0.8 18.1
18:45 11.6 11.5 99 989.3 14.5 S 17.4 0.8 18.1
18:46 11.6 11.5 99 989.4 13.6 S 17.4 0.8 18.1
18:47 11.6 11.5 99 989.1 14.5 S 17.4 0.8 18.1
18:48 11.6 11.5 99 989.3 17.4 S 17.4 0.8 18.1
18:49 11.6 11.5 99 989.5 14.5 S 17.4 0.8 18.2
18:50 11.6 11.5 99 989.4 15.2 S 17.4 0.8 18.2
18:51 11.7 11.6 99 989.5 15.9 S 17.4 0.8 18.3
18:52 11.7 11.6 99 989.5 11.4 SE 17.4 1.5 18.3
18:53 11.7 11.6 99 989.3 15.9 S 17.4 1.5 18.3
18:54 11.7 11.6 99 989.4 15.2 SE 17.4 1.5 18.4
18:55 11.7 11.6 99 989.4 15.9 S 17.4 3.0 18.5
18:56 11.7 11.6 99 989.6 16.8 SW 17.4 3.0 18.5
18:57 11.7 11.6 99 989.3 16.8 S 17.4 2.3 18.5
18:58 11.7 11.6 99 989.3 16.8 SW 17.4 2.3 18.5
18:59 11.7 11.6 99 989.3 14.5 S 17.4 1.5 18.5
19:00 11.7 11.6 99 989.2 13.6 S 17.4 0.0 18.5
19:01 11.7 11.6 99 989.2 13.6 S 17.4 0.0 18.5
19:02 11.7 11.6 99 989.2 14.5 SW 17.4 0.0 18.5
19:03 11.7 11.6 99 989.2 10.7 S 17.4 0.0 18.5
19:04 11.7 11.6 99 989.2 11.4 SW 17.4 0.0 18.5
19:05 11.7 11.6 99 989.2 13.0 S 17.4 0.0 18.5
19:06 11.7 11.6 99 989.2 14.5 SW 17.4 0.0 18.5
19:07 11.7 11.6 99 989.0 10.7 SW 17.4 0.0 18.5
19:08 11.7 11.6 99 989.1 12.1 S 16.8 0.0 18.5
19:09 11.7 11.6 99 989.1 10.7 ENE 14.5 0.0 18.5
19:10 11.7 11.6 99 989.2 9.2 SW 14.5 0.0 18.5
19:11 11.7 11.6 99 988.9 11.4 S 14.5 0.0 18.5
19:12 11.8 11.7 99 989.2 8.3 SSW 14.5 0.0 18.5
19:13 11.7 11.6 99 989.3 13.6 S 14.5 0.0 18.5
19:14 11.8 11.7 99 989.3 10.7 S 14.5 0.0 18.5
19:15 11.8 11.7 99 989.2 14.5 S 14.5 0.0 18.5
19:16 11.8 11.7 99 989.3 13.6 S 14.5 0.0 18.5
19:17 11.9 11.8 99 989.4 12.1 S 14.5 0.0 18.5
19:18 11.9 11.8 99 989.4 13.0 SW 14.5 0.0 18.5
19:19 11.9 11.8 99 989.2 13.0 S 14.5 0.0 18.5
19:20 12.0 11.9 99 989.3 15.2 S 15.2 0.0 18.5
19:22 12.0 11.9 99 989.4 16.8 SW 16.8 0.0 18.5
19:23 12.1 12.0 99 989.1 15.2 S 17.4 0.0 18.5
19:24 12.1 12.0 99 989.2 15.9 S 17.4 0.8 18.5
19:25 12.1 12.0 99 989.2 14.5 S 17.4 0.8 18.5
19:26 12.1 12.0 99 989.3 15.9 S 17.4 0.8 18.5
19:27 12.2 12.1 99 989.4 18.3 SW 18.3 1.5 18.7
19:28 12.2 12.1 99 989.0 13.6 NNE 18.3 3.0 18.7
19:29 12.2 12.1 99 989.4 16.8 S 18.3 2.3 18.7
19:30 12.2 12.1 99 989.3 16.8 SW 18.3 2.3 18.8
19:33 12.3 12.2 99 989.2 12.1 SW 18.3 4.5 19.1
19:34 12.3 12.2 99 989.2 18.3 WSW 18.3 4.5 19.2
19:35 12.3 12.2 99 989.5 16.8 S 18.3 5.3 19.2
19:36 12.3 12.2 99 989.4 20.6 SSW 20.6 2.3 19.2
19:37 12.3 12.2 99 989.4 15.9 S 20.6 2.3 19.2
19:38 12.3 12.2 99 989.6 15.9 SW 20.6 1.5 19.2
19:39 12.4 12.3 99 989.5 14.5 S 20.6 1.5 19.2
19:40 12.4 12.3 99 989.4 14.5 SE 20.6 0.8 19.2
19:41 12.4 12.3 99 989.4 14.5 SE 20.6 0.8 19.2
19:42 12.4 12.3 99 989.5 14.5 SW 20.6 0.0 19.2
19:43 12.4 12.3 99 989.3 13.6 SE 20.6 0.0 19.2
19:44 12.4 12.3 99 989.3 15.9 SE 20.6 0.0 19.2
19:45 12.4 12.3 99 989.3 16.8 S 20.6 0.0 19.2
19:46 12.4 12.3 99 989.2 19.7 S 20.6 0.0 19.2
19:47 12.4 12.3 99 989.1 15.9 S 19.7 0.0 19.2
19:48 12.4 12.3 99 989.2 16.8 S 19.7 0.0 19.2
19:49 12.4 12.3 99 989.1 15.2 SE 19.7 0.0 19.2
19:50 12.4 12.3 99 989.3 19.0 S 22.8 0.0 19.2
19:51 12.4 12.3 99 989.1 19.7 SW 22.8 0.0 19.2
19:52 12.4 12.3 99 989.3 18.3 WSW 22.8 0.0 19.2
19:53 12.3 12.2 99 989.3 19.0 S 22.8 0.0 19.2
19:54 12.3 12.2 99 989.2 15.9 SW 22.8 0.0 19.2
19:55 12.3 12.2 99 989.1 17.4 S 22.8 0.0 19.2
19:56 12.3 12.2 99 989.3 13.0 S 22.8 0.0 19.2
19:57 12.2 12.1 99 989.2 13.6 S 22.8 0.0 19.2
19:58 12.2 12.1 99 989.2 15.2 SW 22.8 0.0 19.2
19:59 12.2 12.1 99 989.3 14.5 S 22.8 0.0 19.2
20:00 12.2 12.1 99 989.3 13.6 S 19.7 0.0 19.2
20:01 12.2 12.1 99 989.2 13.6 S 19.7 0.0 19.2
20:02 12.2 12.1 99 989.3 16.8 S 19.0 0.0 19.2
20:03 12.1 12.0 99 989.3 12.1 S 17.4 0.0 19.2
20:04 12.1 12.0 99 989.3 11.4 S 17.4 0.0 19.2
20:05 12.1 12.0 99 989.2 15.9 S 17.4 0.0 19.2
20:07 12.1 12.0 99 989.2 19.0 SW 19.0 0.0 19.2
20:08 12.1 12.0 99 989.0 10.7 S 19.0 0.0 19.2
20:09 12.1 12.0 99 989.3 13.0 SW 19.0 0.0 19.2
20:10 12.1 12.0 99 989.3 13.0 S 19.0 0.0 19.2
20:11 12.1 12.0 99 989.3 13.0 S 19.0 0.0 19.2
20:12 12.1 12.0 99 989.4 9.8 S 19.0 0.0 19.2
20:13 12.2 12.1 99 989.3 12.1 S 19.0 0.0 19.2
20:14 12.1 12.0 99 989.2 9.8 S 19.0 0.0 19.2
20:15 12.1 12.0 99 989.4 13.0 S 19.0 0.0 19.2
20:16 12.1 12.0 99 989.3 14.5 S 19.0 0.0 19.2
20:17 12.1 12.0 99 989.3 12.1 SW 14.5 0.0 19.2
20:18 12.1 12.0 99 989.4 9.2 S 14.5 0.0 19.2
20:19 12.1 12.0 99 989.3 8.3 S 14.5 0.0 19.2
20:20 12.1 12.0 99 989.4 9.8 S 14.5 0.0 19.2
20:21 12.1 12.0 99 989.4 7.6 SSE 14.5 0.0 19.2
20:22 12.1 12.0 99 989.3 8.3 SW 14.5 0.0 19.2
20:23 12.1 12.0 99 989.4 9.8 S 14.5 0.0 19.2
20:24 12.1 12.0 99 989.4 12.1 S 14.5 0.0 19.2
20:25 12.0 11.9 99 989.4 12.1 S 14.5 0.0 19.2
20:26 12.0 11.9 99 989.3 9.8 SW 12.1 0.0 19.2
20:27 12.0 11.9 99 989.3 9.8 SW 12.1 0.0 19.2
20:28 12.0 11.9 99 989.4 11.4 SW 12.1 0.0 19.2
20:29 12.0 11.9 99 989.3 11.4 S 12.1 0.0 19.2
20:30 12.0 11.9 99 989.2 9.8 SW 12.1 0.0 19.2
20:32 12.0 11.9 99 989.4 9.8 S 12.1 0.0 19.2
20:33 12.0 11.9 99 989.2 8.3 SSW 12.1 0.0 19.2
20:34 12.0 11.9 99 989.3 8.3 S 12.1 0.0 19.2
20:35 12.0 11.9 99 989.4 11.4 S 12.1 0.0 19.2
20:36 12.0 11.9 99 989.4 9.8 SW 11.4 0.0 19.2
20:37 12.0 11.9 99 989.4 7.6 SW 11.4 0.0 19.2
20:38 12.0 11.9 99 989.5 8.3 SW 11.4 0.0 19.2
20:39 12.0 11.9 99 989.6 6.0 S 11.4 0.0 19.2
20:40 12.0 11.9 99 989.4 7.6 WSW 11.4 0.0 19.2
20:41 12.0 11.9 99 989.3 8.3 SSW 11.4 0.0 19.2
20:42 12.0 11.9 99 989.4 9.8 S 11.4 0.0 19.2
20:43 12.0 11.9 99 989.7 10.7 S 11.4 0.0 19.2
20:44 12.0 11.9 99 989.4 10.7 NW 11.4 0.0 19.2
20:45 12.0 11.9 99 989.4 16.8 S 16.8 0.8 19.3
20:46 11.9 11.8 99 989.3 18.3 S 18.3 0.8 19.3
20:47 11.9 11.8 99 989.5 16.8 WSW 18.3 0.8 19.3
20:48 11.9 11.8 99 989.5 19.7 S 19.7 1.5 19.3
20:49 12.0 11.9 99 989.6 19.7 SW 19.7 1.5 19.3
20:50 11.8 11.7 99 989.6 14.5 S 19.7 1.5 19.4
20:51 11.7 11.6 99 989.7 13.0 SW 19.7 1.5 19.4
20:52 11.7 11.6 99 989.5 10.7 S 19.7 1.5 19.4
20:53 11.7 11.6 99 989.7 16.8 SE 19.7 0.8 19.4
20:54 11.7 11.6 99 989.7 15.9 S 19.7 0.8 19.4
20:55 11.6 11.5 99 989.7 13.6 SW 19.7 0.0 19.4
20:56 11.6 11.5 99 989.7 9.2 SW 19.7 0.0 19.4
20:57 11.6 11.5 99 989.8 18.3 S 19.7 0.0 19.4
20:58 11.6 11.5 99 989.8 15.2 S 19.7 0.0 19.4
21:00 11.4 11.3 99 989.6 12.1 SW 18.3 0.8 19.5
21:01 11.4 11.3 99 989.6 12.1 SW 18.3 0.8 19.5
21:02 11.4 11.3 99 989.6 12.1 SW 18.3 0.8 19.5
21:03 11.2 11.1 99 989.5 10.7 SE 18.3 0.8 19.5
21:04 11.1 11.0 99 989.6 9.2 S 18.3 0.8 19.5
21:05 11.1 11.0 99 989.6 7.6 SW 18.3 0.0 19.5
21:06 11.0 10.9 99 989.6 9.2 SW 18.3 0.0 19.5
21:07 10.9 10.8 99 989.6 7.6 SE 18.3 0.0 19.5
21:08 10.8 10.7 99 989.5 4.5 S 16.8 0.0 19.5
21:09 10.8 10.7 99 989.5 6.0 S 13.6 0.0 19.5
21:10 10.8 10.7 99 989.4 8.3 S 12.1 0.0 19.5
21:11 10.7 10.6 99 989.5 5.4 S 12.1 0.0 19.5
21:12 10.6 10.5 99 989.5 6.9 S 12.1 0.0 19.5
21:14 10.5 10.4 99 989.6 5.4 S 9.2 0.0 19.5
21:15 10.4 10.3 99 989.8 7.6 S 9.2 0.0 19.5
21:16 10.4 10.3 99 989.8 6.0 SSW 9.2 0.0 19.5
21:17 10.3 10.2 99 989.9 10.7 S 10.7 0.0 19.5
21:18 10.3 10.2 99 990.0 7.6 S 10.7 0.0 19.5
21:20 10.2 10.1 99 990.0 8.3 S 10.7 0.0 19.5
21:21 10.1 10.0 99 990.0 8.3 S 10.7 0.0 19.5
21:22 10.1 10.0 99 990.0 6.9 S 10.7 0.0 19.5
21:23 10.1 10.0 99 990.2 6.9 S 10.7 0.0 19.5
21:24 10.0 9.9 99 990.0 6.0 S 10.7 0.0 19.5
21:25 10.0 9.9 99 989.8 9.2 S 10.7 0.0 19.5
21:26 10.0 9.9 99 990.0 6.0 S 10.7 0.0 19.5
21:27 10.0 9.9 99 990.0 6.9 SW 10.7 0.0 19.5
21:28 9.9 9.8 99 990.0 12.1 SW 12.1 0.0 19.5
21:29 9.9 9.8 99 990.1 9.2 S 12.1 0.0 19.5
21:30 9.8 9.7 99 990.1 8.3 S 12.1 0.0 19.5
21:31 9.8 9.7 99 990.1 8.3 SW 12.1 0.0 19.5
21:32 9.8 9.7 99 990.1 7.6 S 12.1 0.0 19.5
21:33 9.7 9.6 99 990.2 11.4 S 12.1 0.0 19.5
21:35 9.7 9.6 99 990.2 7.6 S 12.1 0.0 19.5
21:36 9.6 9.5 99 990.1 9.2 SW 12.1 0.0 19.5
21:37 9.6 9.5 99 990.1 9.2 SW 12.1 0.0 19.5
21:38 9.6 9.5 99 990.1 9.2 S 11.4 0.0 19.5
21:39 9.5 9.4 99 990.1 10.7 SW 11.4 0.0 19.5
21:40 9.5 9.4 99 990.1 9.2 SW 11.4 0.0 19.5
21:41 9.5 9.4 99 990.1 11.4 SW 11.4 0.0 19.5
21:42 9.5 9.4 99 990.3 7.6 S 11.4 0.0 19.5
21:43 9.5 9.4 99 990.3 9.8 SW 11.4 0.0 19.5
21:44 9.5 9.4 99 990.4 9.8 S 11.4 0.0 19.5
21:45 9.5 9.4 99 990.3 12.1 S 12.1 0.0 19.5
21:47 9.4 9.3 99 990.2 9.2 S 12.1 0.0 19.5
21:48 9.4 9.3 99 990.3 6.0 S 12.1 0.0 19.5
21:49 9.4 9.3 99 990.3 6.9 SW 12.1 0.0 19.5
21:50 9.4 9.3 99 990.2 7.6 S 12.1 0.0 19.5
21:51 9.4 9.3 99 990.3 10.7 SW 12.1 0.0 19.5
21:52 9.4 9.3 99 990.2 10.7 WSW 12.1 0.0 19.5
21:53 9.4 9.3 99 990.3 8.3 S 12.1 0.0 19.5
21:54 9.4 9.3 99 990.2 11.4 SW 12.1 0.0 19.5
21:55 9.4 9.3 99 990.1 7.6 SW 12.1 0.0 19.5
21:56 9.4 9.3 99 990.0 9.2 S 11.4 0.0 19.5
21:58 9.3 9.2 99 990.3 10.7 SW 11.4 0.0 19.5
21:59 9.3 9.2 99 990.2 9.2 SW 11.4 0.0 19.5
22:00 9.3 9.2 99 990.1 9.2 SW 11.4 0.0 19.5
22:01 9.3 9.2 99 990.3 9.2 SW 11.4 0.0 19.5
22:02 9.3 9.2 99 990.2 9.2 SW 11.4 0.0 19.5
22:03 9.3 9.2 99 990.1 7.6 SW 11.4 0.0 19.5
22:04 9.3 9.2 99 990.3 9.2 SW 10.7 0.0 19.5
22:05 9.3 9.2 99 990.2 7.6 S 10.7 0.0 19.5
22:06 9.3 9.2 99 990.0 7.6 SW 10.7 0.0 19.5
22:07 9.2 9.1 99 990.1 8.3 S 10.7 0.0 19.5
22:08 9.2 9.1 99 990.1 6.9 SW 9.8 0.0 19.5
22:09 9.2 9.1 99 990.3 6.9 SW 9.8 0.0 19.5
22:10 9.2 9.1 99 990.3 6.9 SW 9.8 0.0 19.5
22:11 9.2 9.1 99 990.4 9.2 S 9.8 0.0 19.5
22:12 9.1 9.0 99 990.3 5.4 S 9.8 0.0 19.5
22:13 9.1 9.0 99 990.2 6.9 S 9.8 0.0 19.5
22:14 9.1 9.0 99 990.2 6.9 S 9.2 0.0 19.5
22:15 9.1 9.0 99 990.3 6.0 SW 9.2 0.0 19.5
22:16 9.1 9.0 99 990.4 6.0 SW 9.2 0.0 19.5
22:17 9.1 9.0 99 990.0 6.0 SSE 9.2 0.0 19.5
22:18 9.0 8.9 99 990.4 6.9 S 9.2 0.0 19.5
22:19 9.0 8.9 99 990.4 7.6 S 9.2 0.0 19.5
22:20 9.0 8.9 99 990.3 7.6 SW 9.2 0.0 19.5
22:21 9.0 8.9 99 990.3 9.2 SW 9.2 0.0 19.5
22:22 9.0 8.9 99 990.4 6.9 SW 9.2 0.0 19.5
22:23 9.0 8.9 99 990.3 6.9 S 9.2 0.0 19.5
22:24 9.0 8.9 99 990.3 6.9 SW 9.2 0.0 19.5
22:25 9.0 8.9 99 990.3 6.0 NW 9.2 0.0 19.5
22:26 9.0 8.9 99 990.3 7.6 SW 9.2 0.0 19.5
22:27 9.0 8.9 99 990.4 6.0 S 9.2 0.0 19.5
22:28 9.0 8.9 99 990.4 6.0 SW 9.2 0.0 19.5
22:30 9.0 8.9 99 990.3 7.6 S 9.2 0.0 19.5
22:31 9.0 8.9 99 990.4 4.5 S 9.2 0.0 19.5
22:32 8.9 8.8 99 990.3 5.4 S 7.6 0.0 19.5
22:33 8.9 8.8 99 990.3 7.6 S 7.6 0.0 19.5
22:34 8.9 8.8 99 990.3 6.9 SW 7.6 0.0 19.5
22:35 8.9 8.8 99 990.4 7.6 S 7.6 0.0 19.5
22:36 8.9 8.8 99 990.4 6.9 SW 7.6 0.0 19.5
22:37 8.9 8.8 99 990.4 6.9 SW 7.6 0.0 19.5
22:38 8.9 8.8 99 990.3 6.0 S 7.6 0.0 19.5
22:39 8.9 8.8 99 990.5 7.6 SW 7.6 0.0 19.5
22:40 8.9 8.8 99 990.4 5.4 SE 7.6 0.0 19.5
22:41 8.9 8.8 99 990.4 4.5 S 7.6 0.0 19.5
22:42 8.9 8.8 99 990.3 6.0 S 7.6 0.0 19.5
22:43 8.9 8.8 99 990.4 8.3 SW 8.3 0.0 19.5
22:44 8.9 8.8 99 990.5 7.6 SW 8.3 0.0 19.5
22:45 8.9 8.8 99 990.6 7.6 S 8.3 0.0 19.5
22:46 8.9 8.8 99 990.6 6.9 SW 8.3 0.0 19.5
22:47 8.9 8.8 99 990.5 7.6 S 8.3 0.0 19.5
22:48 8.9 8.8 99 990.7 6.0 S 8.3 0.0 19.5
22:49 9.0 8.9 99 990.6 7.6 SW 8.3 0.0 19.5
22:50 9.0 8.9 99 990.6 6.0 S 8.3 0.0 19.5
22:51 9.0 8.9 99 990.6 6.0 NW 8.3 0.0 19.5
22:52 9.0 8.9 99 990.5 6.0 S 8.3 0.0 19.5
22:53 9.0 8.9 99 990.6 7.6 SW 8.3 0.0 19.5
22:54 9.0 8.9 99 990.6 8.3 S 8.3 0.0 19.5
22:55 9.0 8.9 99 990.6 9.2 SSW 9.2 0.0 19.5
22:56 9.0 8.9 99 990.7 7.6 SE 9.2 0.0 19.5
22:57 9.0 8.9 99 990.8 9.2 S 9.2 0.0 19.5
22:58 9.1 9.0 99 990.6 6.9 S 9.2 0.0 19.5
22:59 9.1 9.0 99 990.7 6.9 S 9.2 0.0 19.5
23:00 9.1 9.0 99 990.7 7.6 S 9.2 0.0 19.5
23:01 9.1 9.0 99 990.7 7.6 S 9.2 0.0 19.5
23:02 9.1 9.0 99 990.6 7.6 S 9.2 0.0 19.5
23:03 9.2 9.1 99 990.5 6.0 SW 9.2 0.0 19.5
23:04 9.3 9.2 99 990.7 6.9 SE 9.2 0.0 19.5
23:06 9.2 9.1 99 990.6 6.0 SW 9.2 0.0 19.5
23:07 9.2 9.1 99 990.6 6.9 S 9.2 0.0 19.5
23:08 9.2 9.1 99 990.6 9.2 SE 9.2 0.0 19.5
23:09 9.2 9.1 99 990.7 6.9 S 9.2 0.0 19.5
23:10 9.2 9.1 99 990.7 8.3 S 9.2 0.0 19.5
23:11 9.2 9.1 99 990.6 9.8 SSW 9.8 0.0 19.5
23:12 9.3 9.2 99 990.6 10.7 S 10.7 0.0 19.5
23:13 9.3 9.2 99 990.7 8.3 S 10.7 0.0 19.5
23:14 9.3 9.2 99 990.7 8.3 SE 10.7 0.0 19.5
23:15 9.3 9.2 99 990.5 9.8 SSW 10.7 0.0 19.5
23:16 9.3 9.2 99 990.7 13.0 SW 13.0 0.0 19.5
23:17 9.4 9.3 99 990.7 8.3 S 13.0 0.0 19.5
23:18 9.4 9.3 99 990.8 8.3 SW 13.0 0.0 19.5
23:19 9.4 9.3 99 990.7 10.7 S 13.0 0.0 19.5
23:20 9.5 9.4 99 990.7 9.8 SE 13.0 0.0 19.5
23:21 9.5 9.4 99 990.7 10.7 SW 13.0 0.0 19.5
23:22 9.5 9.4 99 990.6 13.6 SW 13.6 0.0 19.5
23:23 9.6 9.5 99 990.7 9.8 S 13.6 0.0 19.5
23:24 9.6 9.5 99 990.7 14.5 SW 14.5 0.0 19.5
23:25 9.6 9.5 99 990.7 12.1 SW 14.5 0.0 19.5
23:26 9.7 9.6 99 990.8 12.1 S 14.5 0.0 19.5
23:27 9.7 9.6 99 990.8 10.7 SSW 14.5 0.0 19.5
23:28 9.8 9.7 99 990.6 11.4 S 14.5 0.0 19.5
23:30 9.8 9.7 99 990.8 13.0 SW 15.2 0.0 19.5
23:31 9.9 9.8 99 990.8 10.7 SW 15.2 0.0 19.5
23:32 9.9 9.8 99 990.8 11.4 SW 15.2 0.0 19.5
23:33 9.9 9.8 99 990.7 13.6 WSW 15.2 0.0 19.5
23:34 9.9 9.8 99 990.8 12.1 SW 15.2 0.0 19.5
23:35 10.0 9.9 99 990.8 9.2 SW 15.2 0.0 19.5
23:36 10.0 9.9 99 990.7 13.6 SW 15.2 0.0 19.5
23:37 10.0 9.9 99 990.7 12.1 SW 15.2 0.0 19.5
23:38 10.0 9.9 99 990.6 10.7 S 15.2 0.0 19.5
23:39 10.1 10.0 99 990.8 11.4 SW 15.2 0.0 19.5
23:40 10.1 10.0 99 990.7 11.4 S 13.6 0.0 19.5
23:41 10.1 10.0 99 990.7 10.7 S 13.6 0.0 19.5
23:42 10.1 10.0 99 990.6 11.4 SE 13.6 0.0 19.5
23:43 10.1 10.0 99 990.7 8.3 S 13.6 0.0 19.5
23:44 10.1 10.0 99 990.7 13.6 S 13.6 0.0 19.5
23:45 10.2 10.1 99 990.8 9.8 S 13.6 0.0 19.5
23:46 10.1 10.0 99 990.7 10.7 SW 13.6 0.0 19.5
23:47 10.1 10.0 99 990.7 12.1 SW 13.6 0.0 19.5
23:48 10.1 10.0 99 990.9 15.2 S 15.2 0.0 19.5
23:49 10.2 10.1 99 990.7 12.1 SSW 15.2 0.0 19.5
23:50 10.2 10.1 99 990.9 12.1 SW 15.2 0.0 19.5
23:51 10.2 10.1 99 990.9 10.7 S 15.2 0.0 19.5
23:52 10.2 10.1 99 990.8 8.3 S 15.2 0.0 19.5
23:53 10.3 10.2 99 990.8 13.6 SW 15.2 0.0 19.5
23:54 10.3 10.2 99 990.8 8.3 S 15.2 0.0 19.5
23:55 10.3 10.2 99 990.7 15.2 S 15.2 0.0 19.5
23:56 10.3 10.2 99 990.8 11.4 SW 15.2 0.0 19.5
23:57 10.3 10.2 99 990.8 12.1 NE 15.2 0.0 19.5
23:58 10.3 10.2 99 990.8 13.0 SW 15.2 0.0 19.5
23:59 10.3 10.2 99 990.8 10.7 SSW 15.2 0.0 19.5

UK - WEATHER STATION TOPSITES - UK World Weather Websites

This is a private weather station, never base important decisions or events on data from this weather station. Although every effort has been made to make the data as accurate as possible it does not meet MetOffice standards. It is proved as a guide of local weather conditions. We accept no liability for any loss which may arise from use of the data.

Copyright © Carnkie Weather 2009 - 2018.